GFSNIL_prec_pwat_000.txt.gz
Precipitable_Water
1.44 1.44 1.45 1.51 1.47 1.36 1.33 1.32 1.42 1.48 1.43 1.31 1.30 1.22 1.07 0.99 1.02 1.06 1.01 0.98 1.06 1.09
1.46 1.46 1.48 1.55 1.59 1.49 1.44 1.34 1.44 1.43 1.39 1.37 1.44 1.27 1.15 1.04 1.04 0.99 0.98 0.95 0.99 1.05
1.38 1.46 1.51 1.53 1.51 1.38 1.44 1.42 1.45 1.38 1.30 1.30 1.41 1.36 1.27 1.17 1.11 0.99 0.89 0.92 0.97 1.02
1.33 1.45 1.51 1.52 1.53 1.50 1.49 1.36 1.34 1.32 1.26 1.36 1.26 1.35 1.34 1.20 1.13 1.07 0.97 0.95 1.04 1.07
1.42 1.46 1.49 1.52 1.51 1.41 1.41 1.28 1.27 1.34 1.29 1.24 1.27 1.31 1.37 1.28 1.17 1.09 1.04 1.04 1.04 1.11
1.43 1.48 1.56 1.51 1.34 1.37 1.36 1.15 1.31 1.37 1.40 1.35 1.37 1.31 1.36 1.36 1.25 1.14 1.13 1.16 1.15 1.13
1.69 1.64 1.65 1.61 1.40 1.26 1.24 1.15 1.26 1.30 1.36 1.45 1.42 1.31 1.37 1.39 1.31 1.16 1.19 1.26 1.30 1.27
1.80 1.89 1.83 1.70 1.52 1.39 1.19 1.18 1.09 1.18 1.31 1.38 1.42 1.24 1.36 1.33 1.28 1.21 1.24 1.30 1.38 1.41
1.75 1.74 1.65 1.68 1.63 1.47 1.29 1.29 1.30 1.25 1.28 1.36 1.33 1.23 1.29 1.26 1.29 1.33 1.35 1.36 1.46 1.48
1.58 1.53 1.51 1.59 1.65 1.63 1.58 1.52 1.36 1.35 1.40 1.40 1.41 1.36 1.25 1.22 1.29 1.36 1.39 1.41 1.37 1.42
1.42 1.40 1.38 1.36 1.40 1.41 1.46 1.45 1.48 1.44 1.48 1.50 1.47 1.40 1.38 1.38 1.35 1.38 1.42 1.42 1.40 1.41
1.33 1.36 1.41 1.40 1.42 1.52 1.54 1.51 1.51 1.55 1.54 1.53 1.50 1.43 1.43 1.40 1.38 1.31 1.33 1.36 1.36 1.35
1.37 1.39 1.41 1.47 1.51 1.58 1.60 1.48 1.51 1.52 1.53 1.51 1.44 1.44 1.34 1.28 1.30 1.26 1.24 1.30 1.35 1.41
1.39 1.45 1.51 1.52 1.52 1.60 1.56 1.52 1.52 1.50 1.53 1.53 1.43 1.40 1.37 1.32 1.29 1.25 1.25 1.26 1.33 1.39

GFSNIL_prec_pwat_003.txt.gz
Precipitable_Water
1.46 1.42 1.43 1.52 1.59 1.49 1.47 1.48 1.54 1.63 1.67 1.56 1.47 1.48 1.42 1.27 1.16 1.16 1.08 1.01 1.01 1.10
1.56 1.49 1.48 1.57 1.58 1.66 1.55 1.50 1.45 1.51 1.42 1.45 1.41 1.48 1.41 1.32 1.34 1.19 1.12 1.05 1.07 1.07
1.54 1.64 1.60 1.65 1.61 1.59 1.60 1.49 1.45 1.45 1.39 1.38 1.38 1.47 1.30 1.31 1.39 1.34 1.22 1.15 1.06 1.09
1.45 1.56 1.58 1.53 1.51 1.55 1.52 1.54 1.34 1.25 1.29 1.31 1.46 1.54 1.43 1.33 1.37 1.48 1.37 1.26 1.09 1.13
1.41 1.47 1.49 1.52 1.52 1.53 1.40 1.46 1.30 1.22 1.34 1.37 1.37 1.43 1.36 1.31 1.30 1.32 1.27 1.22 1.17 1.19
1.39 1.43 1.46 1.54 1.56 1.52 1.48 1.43 1.34 1.25 1.26 1.17 1.23 1.32 1.28 1.33 1.27 1.28 1.32 1.31 1.29 1.29
1.51 1.48 1.49 1.56 1.58 1.54 1.43 1.29 1.21 1.14 1.15 1.16 1.27 1.29 1.32 1.37 1.31 1.24 1.35 1.36 1.36 1.36
1.68 1.66 1.66 1.63 1.70 1.63 1.45 1.28 1.14 1.15 1.20 1.26 1.31 1.33 1.38 1.40 1.35 1.24 1.36 1.34 1.38 1.40
1.66 1.70 1.72 1.79 1.80 1.76 1.58 1.41 1.29 1.22 1.18 1.27 1.28 1.25 1.30 1.42 1.29 1.24 1.31 1.38 1.44 1.47
1.70 1.68 1.74 1.83 1.78 1.70 1.66 1.59 1.33 1.19 1.20 1.30 1.36 1.35 1.30 1.33 1.37 1.25 1.35 1.42 1.41 1.45
1.65 1.69 1.69 1.62 1.51 1.49 1.53 1.49 1.45 1.39 1.35 1.38 1.47 1.47 1.39 1.39 1.36 1.27 1.28 1.39 1.41 1.43
1.60 1.46 1.39 1.36 1.38 1.46 1.50 1.53 1.47 1.49 1.53 1.51 1.53 1.53 1.46 1.46 1.41 1.35 1.38 1.38 1.42 1.39
1.39 1.37 1.34 1.37 1.42 1.52 1.59 1.63 1.60 1.54 1.57 1.61 1.59 1.60 1.55 1.52 1.41 1.27 1.28 1.41 1.43 1.33
1.41 1.37 1.40 1.44 1.52 1.54 1.58 1.60 1.53 1.49 1.53 1.57 1.60 1.54 1.51 1.40 1.35 1.30 1.25 1.29 1.30 1.31

GFSNIL_prec_pwat_006.txt.gz
Precipitable_Water
1.40 1.32 1.33 1.40 1.29 1.43 1.35 1.41 1.64 1.62 1.61 1.63 1.47 1.35 1.39 1.41 1.37 1.33 1.32 1.15 1.10 1.11
1.42 1.33 1.25 1.34 1.47 1.53 1.56 1.57 1.61 1.58 1.53 1.47 1.46 1.41 1.43 1.37 1.41 1.47 1.39 1.33 1.20 1.08
1.44 1.38 1.29 1.30 1.44 1.50 1.65 1.56 1.52 1.55 1.46 1.47 1.39 1.38 1.39 1.34 1.39 1.32 1.30 1.30 1.33 1.32
1.38 1.30 1.32 1.42 1.52 1.50 1.60 1.59 1.54 1.45 1.44 1.38 1.37 1.34 1.34 1.28 1.24 1.23 1.25 1.20 1.16 1.20
1.28 1.32 1.33 1.36 1.47 1.52 1.59 1.58 1.52 1.54 1.43 1.36 1.33 1.32 1.32 1.23 1.22 1.27 1.21 1.27 1.20 1.09
1.28 1.30 1.31 1.32 1.40 1.55 1.54 1.54 1.50 1.50 1.44 1.33 1.30 1.29 1.33 1.32 1.26 1.23 1.19 1.19 1.20 1.11
1.28 1.30 1.30 1.36 1.37 1.44 1.55 1.57 1.52 1.50 1.46 1.36 1.28 1.29 1.30 1.35 1.32 1.26 1.23 1.28 1.31 1.23
1.37 1.42 1.43 1.44 1.42 1.54 1.66 1.74 1.72 1.64 1.56 1.48 1.31 1.27 1.30 1.33 1.32 1.30 1.28 1.37 1.37 1.27
1.43 1.50 1.54 1.57 1.60 1.71 1.79 1.87 1.85 1.68 1.56 1.51 1.38 1.20 1.28 1.39 1.42 1.38 1.33 1.32 1.42 1.28
1.44 1.52 1.59 1.64 1.70 1.77 1.85 1.89 1.81 1.73 1.61 1.43 1.42 1.33 1.36 1.50 1.46 1.37 1.37 1.42 1.42 1.28
1.45 1.52 1.64 1.67 1.73 1.87 1.89 1.83 1.79 1.69 1.59 1.48 1.47 1.42 1.33 1.36 1.38 1.39 1.47 1.41 1.42 1.33
1.58 1.66 1.64 1.64 1.77 1.83 1.75 1.69 1.65 1.62 1.50 1.47 1.51 1.54 1.52 1.48 1.49 1.46 1.37 1.40 1.38 1.40
1.70 1.69 1.66 1.76 1.71 1.64 1.61 1.55 1.60 1.58 1.53 1.53 1.60 1.61 1.57 1.63 1.50 1.38 1.43 1.41 1.39 1.41
1.77 1.80 1.76 1.60 1.53 1.50 1.50 1.58 1.57 1.53 1.58 1.65 1.60 1.61 1.63 1.59 1.49 1.42 1.34 1.29 1.37 1.42

GFSNIL_prec_pwat_009.txt.gz
Precipitable_Water
1.32 1.24 1.21 1.32 1.40 1.39 1.41 1.52 1.59 1.50 1.51 1.48 1.49 1.32 1.26 1.26 1.23 1.24 1.15 1.25 1.20 1.23
1.33 1.27 1.30 1.27 1.40 1.46 1.50 1.53 1.54 1.52 1.55 1.57 1.50 1.35 1.23 1.24 1.25 1.29 1.21 1.11 1.06 1.14
1.22 1.36 1.38 1.30 1.29 1.48 1.51 1.50 1.51 1.54 1.54 1.57 1.50 1.37 1.26 1.24 1.28 1.29 1.29 1.25 1.16 1.09
1.22 1.36 1.36 1.29 1.28 1.44 1.56 1.56 1.53 1.52 1.53 1.54 1.50 1.34 1.21 1.22 1.28 1.27 1.25 1.26 1.16 1.16
1.28 1.31 1.30 1.26 1.33 1.38 1.44 1.54 1.56 1.57 1.52 1.55 1.51 1.41 1.23 1.17 1.27 1.19 1.24 1.23 1.22 1.18
1.25 1.24 1.28 1.27 1.31 1.36 1.35 1.47 1.57 1.57 1.53 1.52 1.50 1.46 1.36 1.26 1.26 1.21 1.29 1.26 1.24 1.25
1.19 1.17 1.26 1.30 1.26 1.37 1.47 1.47 1.51 1.55 1.54 1.54 1.51 1.49 1.49 1.34 1.28 1.21 1.30 1.31 1.32 1.33
1.20 1.24 1.31 1.34 1.36 1.32 1.43 1.50 1.57 1.57 1.60 1.63 1.62 1.60 1.53 1.39 1.30 1.19 1.25 1.33 1.37 1.40
1.22 1.28 1.34 1.37 1.39 1.47 1.45 1.51 1.62 1.66 1.71 1.72 1.70 1.73 1.62 1.51 1.36 1.26 1.27 1.28 1.36 1.41
1.18 1.23 1.32 1.44 1.50 1.53 1.56 1.68 1.73 1.78 1.83 1.79 1.88 1.83 1.71 1.60 1.43 1.31 1.31 1.39 1.40 1.44
1.25 1.20 1.37 1.51 1.54 1.63 1.71 1.76 1.85 1.92 1.98 1.92 1.86 1.74 1.64 1.56 1.47 1.51 1.50 1.50 1.52 1.48
1.31 1.24 1.36 1.50 1.67 1.78 1.84 1.95 2.05 2.05 1.89 1.71 1.63 1.63 1.57 1.52 1.49 1.48 1.48 1.56 1.60 1.49
1.39 1.38 1.42 1.62 1.74 1.86 2.01 1.95 2.02 1.84 1.72 1.65 1.57 1.58 1.57 1.48 1.41 1.38 1.45 1.46 1.45 1.42
1.53 1.56 1.61 1.72 1.84 2.03 1.98 1.83 1.64 1.62 1.60 1.59 1.60 1.53 1.49 1.47 1.45 1.48 1.40 1.34 1.37 1.42

GFSNIL_prec_pwat_012.txt.gz
Precipitable_Water
1.20 1.14 1.16 1.26 1.30 1.26 1.24 1.41 1.55 1.57 1.62 1.51 1.44 1.41 1.24 1.20 1.21 1.16 1.18 1.20 1.19 1.17
1.23 1.18 1.17 1.31 1.33 1.23 1.34 1.48 1.57 1.61 1.58 1.52 1.45 1.41 1.30 1.13 1.19 1.18 1.19 1.12 1.17 1.13
1.20 1.20 1.28 1.36 1.29 1.33 1.44 1.53 1.58 1.60 1.56 1.49 1.50 1.48 1.37 1.19 1.17 1.17 1.20 1.20 1.13 1.08
1.21 1.21 1.30 1.31 1.33 1.31 1.43 1.51 1.54 1.56 1.53 1.51 1.49 1.52 1.45 1.28 1.16 1.13 1.17 1.22 1.21 1.12
1.25 1.22 1.25 1.26 1.29 1.37 1.41 1.50 1.53 1.53 1.52 1.53 1.54 1.52 1.48 1.40 1.21 1.11 1.11 1.16 1.19 1.16
1.28 1.20 1.24 1.18 1.31 1.33 1.36 1.42 1.56 1.57 1.57 1.58 1.54 1.54 1.55 1.52 1.37 1.18 1.11 1.17 1.20 1.17
1.28 1.14 1.20 1.23 1.23 1.30 1.32 1.34 1.43 1.55 1.58 1.59 1.60 1.62 1.62 1.59 1.52 1.39 1.22 1.18 1.24 1.24
1.34 1.22 1.23 1.26 1.22 1.26 1.31 1.32 1.40 1.45 1.51 1.58 1.62 1.61 1.66 1.66 1.68 1.59 1.39 1.28 1.22 1.26
1.28 1.26 1.17 1.23 1.27 1.22 1.29 1.36 1.39 1.42 1.46 1.51 1.61 1.68 1.76 1.77 1.77 1.72 1.56 1.34 1.17 1.27
1.26 1.22 1.14 1.23 1.29 1.26 1.27 1.38 1.44 1.49 1.57 1.64 1.73 1.82 1.89 1.88 1.81 1.75 1.64 1.44 1.20 1.27
1.42 1.20 1.20 1.21 1.24 1.34 1.44 1.44 1.50 1.56 1.69 1.90 2.10 2.11 1.99 1.95 1.79 1.71 1.59 1.46 1.27 1.36
1.48 1.40 1.28 1.15 1.21 1.34 1.46 1.53 1.60 1.71 1.83 1.87 1.44 2.03 1.93 1.80 1.70 1.57 1.48 1.40 1.44 1.47
1.42 1.51 1.45 1.34 1.26 1.36 1.52 1.71 1.83 1.89 1.92 1.63 1.57 1.84 1.83 1.72 1.56 1.42 1.38 1.42 1.49 1.53
1.34 1.49 1.57 1.59 1.54 1.50 1.58 1.81 1.87 1.94 1.97 1.72 1.71 1.73 1.67 1.57 1.43 1.36 1.33 1.33 1.35 1.39

GFSNIL_prec_pwat_015.txt.gz
Precipitable_Water
1.28 1.22 1.23 1.20 1.21 1.21 1.26 1.29 1.41 1.51 1.60 1.59 1.55 1.50 1.41 1.30 1.19 1.19 1.15 1.18 1.19 1.19
1.32 1.28 1.22 1.19 1.19 1.25 1.30 1.38 1.42 1.51 1.57 1.62 1.58 1.49 1.44 1.30 1.16 1.20 1.14 1.16 1.21 1.17
1.37 1.32 1.28 1.25 1.12 1.25 1.25 1.39 1.42 1.49 1.57 1.60 1.57 1.50 1.46 1.37 1.23 1.14 1.17 1.16 1.12 1.12
1.40 1.31 1.31 1.25 1.15 1.20 1.23 1.37 1.40 1.46 1.55 1.57 1.57 1.53 1.50 1.42 1.37 1.17 1.10 1.17 1.13 1.12
1.43 1.32 1.26 1.24 1.17 1.17 1.23 1.36 1.44 1.53 1.55 1.57 1.60 1.58 1.52 1.44 1.48 1.40 1.14 1.08 1.12 1.13
1.40 1.31 1.19 1.19 1.24 1.18 1.19 1.30 1.41 1.48 1.51 1.53 1.55 1.52 1.54 1.56 1.57 1.58 1.48 1.25 1.13 1.14
1.37 1.34 1.17 1.15 1.27 1.22 1.23 1.26 1.35 1.42 1.48 1.54 1.58 1.58 1.59 1.60 1.63 1.66 1.69 1.61 1.40 1.21
1.42 1.45 1.34 1.17 1.25 1.26 1.25 1.29 1.34 1.40 1.49 1.55 1.59 1.59 1.54 1.55 1.63 1.73 1.74 1.76 1.61 1.46
1.41 1.43 1.36 1.21 1.19 1.24 1.27 1.29 1.31 1.33 1.36 1.38 1.47 1.51 1.53 1.65 1.77 1.88 1.85 1.72 1.71 1.55
1.43 1.39 1.36 1.35 1.20 1.16 1.20 1.29 1.22 1.26 1.31 1.29 1.36 1.41 1.53 1.72 1.73 1.70 1.85 1.80 1.75 1.54
1.41 1.38 1.37 1.41 1.27 1.20 1.22 1.22 1.22 1.23 1.28 1.32 1.35 1.46 1.63 1.82 1.54 1.57 1.81 1.84 1.78 1.56
1.47 1.42 1.40 1.30 1.32 1.30 1.28 1.24 1.23 1.32 1.33 1.33 1.43 1.67 1.79 1.82 1.56 1.69 1.85 1.85 1.66 1.53
1.41 1.45 1.48 1.46 1.37 1.42 1.37 1.32 1.35 1.37 1.42 1.49 1.63 1.77 1.79 1.65 1.64 1.73 1.76 1.63 1.52 1.44
1.47 1.42 1.49 1.57 1.66 1.50 1.43 1.38 1.38 1.43 1.58 1.71 1.85 1.83 1.84 1.68 1.70 1.67 1.54 1.42 1.33 1.37

GFSNIL_prec_pwat_021.txt.gz
Precipitable_Water
1.22 1.23 1.23 1.26 1.27 1.27 1.28 1.27 1.33 1.36 1.44 1.52 1.60 1.66 1.64 1.54 1.45 1.37 1.27 1.16 1.12 1.18
1.24 1.25 1.19 1.22 1.27 1.29 1.36 1.36 1.31 1.33 1.43 1.54 1.55 1.60 1.60 1.49 1.40 1.35 1.30 1.19 1.20 1.16
1.21 1.26 1.30 1.34 1.28 1.28 1.32 1.36 1.32 1.28 1.39 1.48 1.50 1.58 1.58 1.52 1.46 1.33 1.29 1.24 1.22 1.22
1.35 1.37 1.44 1.45 1.43 1.37 1.36 1.39 1.34 1.30 1.32 1.42 1.43 1.53 1.54 1.55 1.50 1.41 1.33 1.30 1.24 1.27
1.48 1.49 1.47 1.48 1.50 1.50 1.33 1.36 1.36 1.32 1.31 1.38 1.46 1.50 1.49 1.49 1.50 1.39 1.32 1.33 1.34 1.28
1.51 1.49 1.46 1.48 1.53 1.56 1.45 1.29 1.34 1.31 1.24 1.35 1.40 1.43 1.48 1.51 1.53 1.44 1.41 1.43 1.47 1.47
1.46 1.45 1.47 1.53 1.52 1.52 1.51 1.33 1.27 1.30 1.25 1.32 1.39 1.40 1.43 1.46 1.51 1.47 1.47 1.53 1.60 1.58
1.46 1.51 1.51 1.54 1.53 1.47 1.51 1.40 1.25 1.25 1.28 1.24 1.33 1.35 1.37 1.40 1.45 1.48 1.47 1.55 1.61 1.60
1.44 1.47 1.43 1.49 1.52 1.54 1.49 1.46 1.28 1.19 1.23 1.18 1.23 1.29 1.32 1.39 1.42 1.47 1.45 1.46 1.54 1.57
1.50 1.50 1.45 1.47 1.50 1.46 1.46 1.49 1.30 1.18 1.22 1.17 1.19 1.24 1.27 1.36 1.41 1.43 1.46 1.45 1.49 1.53
1.43 1.47 1.49 1.46 1.46 1.49 1.53 1.47 1.40 1.22 1.19 1.18 1.18 1.20 1.23 1.31 1.39 1.45 1.47 1.47 1.49 1.56
1.35 1.37 1.46 1.47 1.46 1.51 1.54 1.55 1.49 1.39 1.24 1.16 1.11 1.16 1.21 1.28 1.39 1.42 1.43 1.50 1.52 1.62
1.45 1.45 1.40 1.48 1.56 1.61 1.59 1.53 1.58 1.51 1.37 1.26 1.20 1.21 1.22 1.30 1.39 1.37 1.40 1.47 1.51 1.65
1.35 1.40 1.47 1.52 1.56 1.66 1.64 1.64 1.60 1.57 1.53 1.46 1.30 1.32 1.32 1.38 1.44 1.38 1.37 1.39 1.45 1.68

GFSNIL_prec_pwat_027.txt.gz
Precipitable_Water
1.16 1.18 1.15 1.19 1.25 1.25 1.28 1.33 1.45 1.50 1.48 1.49 1.54 1.55 1.62 1.61 1.54 1.47 1.41 1.30 1.15 1.26
1.10 1.08 1.12 1.18 1.24 1.35 1.33 1.37 1.44 1.49 1.45 1.45 1.45 1.56 1.58 1.53 1.54 1.50 1.44 1.38 1.28 1.18
1.10 1.15 1.19 1.27 1.27 1.26 1.35 1.35 1.49 1.40 1.41 1.38 1.37 1.45 1.51 1.51 1.57 1.51 1.45 1.38 1.36 1.28
1.10 1.18 1.22 1.23 1.31 1.32 1.36 1.42 1.34 1.42 1.34 1.33 1.30 1.33 1.44 1.44 1.50 1.49 1.46 1.43 1.37 1.35
1.28 1.24 1.20 1.19 1.23 1.33 1.34 1.42 1.48 1.46 1.43 1.40 1.35 1.31 1.35 1.39 1.38 1.46 1.43 1.42 1.36 1.35
1.43 1.39 1.29 1.31 1.31 1.34 1.36 1.39 1.43 1.48 1.46 1.39 1.36 1.32 1.28 1.35 1.37 1.39 1.44 1.45 1.43 1.39
1.48 1.44 1.46 1.50 1.51 1.45 1.44 1.41 1.47 1.54 1.54 1.48 1.38 1.29 1.23 1.20 1.27 1.32 1.35 1.40 1.45 1.49
1.64 1.65 1.67 1.63 1.62 1.64 1.59 1.53 1.55 1.59 1.63 1.63 1.54 1.35 1.27 1.26 1.26 1.26 1.27 1.35 1.45 1.53
1.67 1.70 1.66 1.67 1.66 1.69 1.64 1.57 1.56 1.54 1.57 1.59 1.63 1.52 1.31 1.26 1.19 1.26 1.31 1.34 1.45 1.51
1.48 1.63 1.69 1.71 1.68 1.61 1.62 1.71 1.60 1.59 1.63 1.60 1.64 1.59 1.43 1.25 1.24 1.20 1.26 1.34 1.40 1.44
1.41 1.51 1.65 1.66 1.60 1.65 1.70 1.67 1.67 1.66 1.65 1.63 1.61 1.62 1.53 1.38 1.27 1.28 1.32 1.34 1.37 1.39
1.43 1.41 1.55 1.59 1.60 1.68 1.66 1.69 1.66 1.72 1.74 1.62 1.60 1.66 1.62 1.54 1.39 1.29 1.29 1.33 1.38 1.41
1.45 1.44 1.44 1.59 1.62 1.70 1.73 1.67 1.74 1.69 1.72 1.72 1.65 1.75 1.72 1.66 1.56 1.33 1.28 1.38 1.42 1.37
1.41 1.46 1.57 1.61 1.64 1.67 1.72 1.75 1.73 1.68 1.73 1.76 1.76 1.74 1.71 1.68 1.69 1.44 1.34 1.34 1.35 1.43

GFSNIL_prec_pwat_030.txt.gz
Precipitable_Water
1.33 1.22 1.08 1.22 1.18 1.21 1.25 1.28 1.44 1.44 1.47 1.44 1.47 1.44 1.67 1.56 1.56 1.53 1.33 1.27 1.22 1.28
1.15 1.21 1.01 1.12 1.22 1.24 1.24 1.31 1.37 1.43 1.41 1.41 1.43 1.40 1.45 1.55 1.48 1.51 1.47 1.32 1.22 1.20
1.05 1.09 1.10 1.00 1.10 1.15 1.26 1.20 1.42 1.40 1.41 1.44 1.43 1.43 1.44 1.46 1.45 1.50 1.51 1.44 1.31 1.14
1.12 1.10 1.09 1.14 1.11 1.19 1.22 1.39 1.27 1.53 1.43 1.40 1.40 1.36 1.34 1.37 1.41 1.38 1.45 1.48 1.40 1.29
1.14 1.19 1.14 1.09 1.13 1.18 1.26 1.26 1.41 1.43 1.48 1.43 1.35 1.34 1.30 1.19 1.27 1.37 1.37 1.40 1.40 1.37
1.28 1.25 1.24 1.23 1.15 1.25 1.25 1.34 1.31 1.41 1.41 1.40 1.36 1.30 1.32 1.29 1.22 1.23 1.43 1.46 1.44 1.40
1.49 1.44 1.43 1.40 1.36 1.28 1.34 1.28 1.32 1.34 1.43 1.48 1.43 1.39 1.32 1.32 1.26 1.20 1.23 1.43 1.53 1.48
1.66 1.67 1.59 1.57 1.54 1.54 1.44 1.38 1.40 1.37 1.41 1.49 1.53 1.51 1.44 1.32 1.27 1.24 1.19 1.22 1.41 1.49
1.59 1.66 1.74 1.73 1.67 1.64 1.59 1.56 1.55 1.45 1.46 1.47 1.55 1.61 1.58 1.52 1.34 1.27 1.23 1.20 1.26 1.41
1.47 1.51 1.62 1.74 1.76 1.65 1.63 1.65 1.58 1.60 1.58 1.49 1.53 1.57 1.61 1.62 1.58 1.49 1.36 1.27 1.25 1.26
1.51 1.49 1.60 1.62 1.69 1.75 1.73 1.63 1.64 1.65 1.66 1.64 1.62 1.62 1.61 1.64 1.66 1.62 1.57 1.49 1.38 1.26
1.41 1.45 1.53 1.55 1.53 1.69 1.79 1.76 1.73 1.71 1.72 1.68 1.67 1.77 1.73 1.74 1.73 1.65 1.59 1.62 1.57 1.50
1.25 1.29 1.32 1.51 1.57 1.62 1.75 1.79 1.82 1.68 1.71 1.76 1.73 1.85 1.84 1.86 1.86 1.68 1.62 1.71 1.68 1.63
1.26 1.24 1.34 1.49 1.68 1.67 1.70 1.77 1.74 1.71 1.79 1.78 1.82 1.85 1.90 1.93 1.91 1.76 1.71 1.66 1.66 1.76

GFSNIL_prec_pwat_033.txt.gz
Precipitable_Water
1.26 1.20 1.14 1.13 1.09 1.12 1.19 1.25 1.34 1.38 1.48 1.40 1.46 1.37 1.40 1.45 1.47 1.44 1.28 1.31 1.27 1.26
1.13 1.21 1.07 1.02 1.13 1.16 1.21 1.25 1.31 1.41 1.44 1.46 1.44 1.40 1.34 1.41 1.43 1.49 1.41 1.20 1.20 1.19
0.99 1.07 1.14 1.08 0.99 1.13 1.12 1.23 1.27 1.28 1.35 1.40 1.42 1.39 1.32 1.33 1.47 1.45 1.44 1.36 1.24 1.11
1.01 0.99 1.13 1.13 1.05 1.08 1.25 1.23 1.22 1.30 1.37 1.37 1.41 1.47 1.37 1.20 1.29 1.39 1.40 1.44 1.38 1.27
1.10 1.07 1.03 1.15 1.14 1.05 1.09 1.20 1.26 1.29 1.39 1.48 1.42 1.39 1.36 1.21 1.16 1.22 1.31 1.38 1.41 1.34
1.13 1.16 1.11 1.11 1.14 1.16 1.05 1.10 1.16 1.37 1.36 1.32 1.38 1.39 1.36 1.29 1.16 1.14 1.16 1.28 1.35 1.37
1.16 1.19 1.24 1.23 1.20 1.17 1.20 1.16 1.22 1.21 1.35 1.44 1.41 1.40 1.41 1.35 1.26 1.17 1.14 1.20 1.27 1.34
1.37 1.38 1.36 1.32 1.30 1.28 1.21 1.22 1.23 1.23 1.26 1.36 1.44 1.46 1.43 1.42 1.33 1.26 1.20 1.17 1.18 1.25
1.53 1.57 1.57 1.52 1.44 1.41 1.36 1.28 1.30 1.25 1.23 1.30 1.41 1.49 1.50 1.53 1.49 1.48 1.38 1.24 1.19 1.22
1.59 1.57 1.56 1.60 1.62 1.58 1.51 1.53 1.42 1.38 1.39 1.35 1.41 1.50 1.58 1.62 1.63 1.60 1.57 1.53 1.47 1.40
1.56 1.54 1.56 1.60 1.61 1.67 1.71 1.66 1.57 1.53 1.53 1.54 1.51 1.56 1.62 1.69 1.71 1.68 1.67 1.69 1.68 1.60
1.41 1.45 1.51 1.50 1.54 1.64 1.68 1.69 1.75 1.73 1.68 1.63 1.63 1.72 1.78 1.81 1.78 1.73 1.73 1.82 1.83 1.80
1.44 1.49 1.45 1.48 1.52 1.59 1.66 1.67 1.71 1.78 1.83 1.76 1.67 1.81 1.87 1.91 1.89 1.76 1.79 1.88 1.87 1.87
1.32 1.34 1.42 1.45 1.51 1.54 1.57 1.67 1.71 1.71 1.80 1.86 1.85 1.85 1.92 1.96 1.92 1.86 1.84 1.79 1.78 1.84

GFSNIL_prec_pwat_036.txt.gz
Precipitable_Water
1.16 1.11 1.10 1.14 1.15 1.17 1.19 1.21 1.30 1.37 1.41 1.42 1.47 1.44 1.45 1.52 1.50 1.45 1.33 1.37 1.37 1.30
1.18 1.15 1.08 1.07 1.12 1.14 1.18 1.24 1.31 1.36 1.40 1.41 1.40 1.42 1.40 1.39 1.45 1.49 1.43 1.29 1.37 1.30
1.21 1.17 1.11 1.11 1.06 1.06 1.08 1.14 1.23 1.32 1.40 1.44 1.45 1.44 1.38 1.36 1.40 1.49 1.46 1.40 1.22 1.24
1.18 1.16 1.20 1.08 1.04 1.03 1.08 1.15 1.17 1.29 1.32 1.36 1.39 1.44 1.42 1.34 1.32 1.34 1.40 1.45 1.36 1.19
1.17 1.17 1.11 1.09 1.09 1.13 1.06 1.14 1.24 1.26 1.30 1.31 1.38 1.45 1.42 1.36 1.32 1.21 1.29 1.33 1.35 1.28
1.13 1.13 1.09 1.04 1.11 1.17 1.16 1.15 1.23 1.34 1.26 1.27 1.34 1.41 1.42 1.36 1.30 1.24 1.13 1.18 1.28 1.27
1.09 1.13 1.11 1.10 1.11 1.14 1.19 1.12 1.12 1.20 1.29 1.32 1.33 1.37 1.38 1.38 1.34 1.29 1.24 1.17 1.16 1.17
1.07 1.13 1.15 1.17 1.18 1.17 1.16 1.15 1.14 1.11 1.19 1.27 1.33 1.41 1.40 1.40 1.34 1.33 1.34 1.34 1.29 1.23
1.18 1.16 1.16 1.18 1.19 1.20 1.18 1.15 1.17 1.12 1.10 1.11 1.20 1.35 1.42 1.48 1.46 1.46 1.44 1.38 1.42 1.42
1.37 1.39 1.39 1.39 1.37 1.31 1.24 1.24 1.17 1.16 1.13 1.13 1.23 1.32 1.38 1.45 1.51 1.54 1.55 1.55 1.55 1.55
1.56 1.53 1.53 1.54 1.53 1.55 1.58 1.54 1.46 1.38 1.35 1.30 1.33 1.42 1.47 1.54 1.60 1.60 1.63 1.67 1.68 1.66
1.50 1.55 1.62 1.56 1.58 1.62 1.64 1.65 1.66 1.70 1.64 1.56 1.55 1.65 1.67 1.69 1.70 1.68 1.69 1.75 1.78 1.78
1.50 1.51 1.43 1.42 1.47 1.55 1.59 1.55 1.65 1.65 1.73 1.79 1.76 1.82 1.82 1.81 1.80 1.70 1.74 1.81 1.83 1.89
1.43 1.43 1.49 1.52 1.51 1.49 1.52 1.55 1.57 1.60 1.68 1.76 1.84 1.88 1.90 1.87 1.82 1.75 1.75 1.75 1.75 1.86

GFSNIL_prec_pwat_039.txt.gz
Precipitable_Water
1.26 1.17 1.09 1.06 1.03 1.07 1.16 1.23 1.30 1.34 1.39 1.43 1.44 1.55 1.56 1.52 1.58 1.45 1.42 1.45 1.40 1.24
1.28 1.21 1.11 1.10 1.12 1.10 1.22 1.27 1.31 1.34 1.36 1.41 1.45 1.47 1.55 1.48 1.45 1.52 1.40 1.33 1.41 1.36
1.25 1.23 1.19 1.17 1.12 1.09 1.18 1.25 1.26 1.29 1.35 1.38 1.39 1.44 1.44 1.46 1.45 1.42 1.46 1.40 1.31 1.32
1.21 1.23 1.23 1.16 1.12 1.13 1.14 1.19 1.18 1.21 1.27 1.31 1.32 1.40 1.39 1.40 1.46 1.41 1.36 1.42 1.34 1.27
1.20 1.23 1.20 1.13 1.10 1.12 1.13 1.20 1.14 1.16 1.18 1.24 1.31 1.37 1.38 1.37 1.41 1.37 1.32 1.30 1.35 1.31
1.17 1.15 1.15 1.14 1.13 1.12 1.15 1.18 1.20 1.15 1.16 1.19 1.25 1.31 1.39 1.40 1.38 1.35 1.30 1.30 1.27 1.25
1.12 1.13 1.11 1.12 1.16 1.19 1.19 1.13 1.16 1.18 1.13 1.21 1.27 1.29 1.33 1.38 1.36 1.34 1.31 1.29 1.25 1.21
1.08 1.11 1.12 1.13 1.15 1.19 1.18 1.13 1.11 1.12 1.14 1.15 1.24 1.31 1.30 1.28 1.27 1.29 1.30 1.34 1.34 1.31
1.03 1.07 1.09 1.13 1.15 1.13 1.13 1.13 1.12 1.05 1.05 1.09 1.14 1.20 1.25 1.30 1.29 1.31 1.30 1.27 1.33 1.39
1.09 1.05 1.04 1.10 1.15 1.14 1.11 1.12 1.10 1.10 1.07 1.03 1.10 1.17 1.21 1.28 1.34 1.34 1.39 1.43 1.46 1.49
1.33 1.29 1.33 1.33 1.29 1.28 1.28 1.21 1.16 1.14 1.12 1.11 1.14 1.20 1.24 1.31 1.37 1.38 1.43 1.48 1.51 1.55
1.48 1.43 1.46 1.46 1.47 1.51 1.52 1.51 1.49 1.50 1.48 1.44 1.40 1.47 1.50 1.54 1.53 1.51 1.51 1.59 1.64 1.70
1.62 1.61 1.60 1.61 1.62 1.65 1.66 1.64 1.71 1.71 1.78 1.79 1.74 1.81 1.81 1.78 1.70 1.58 1.59 1.70 1.78 1.85
1.63 1.59 1.63 1.66 1.69 1.60 1.55 1.58 1.59 1.60 1.67 1.72 1.79 1.84 1.87 1.89 1.86 1.76 1.67 1.63 1.68 1.81

GFSNIL_prec_pwat_042.txt.gz
Precipitable_Water
1.26 1.24 1.18 1.16 1.11 0.99 0.95 1.04 1.21 1.26 1.32 1.39 1.49 1.51 1.57 1.51 1.47 1.55 1.46 1.39 1.39 1.33
1.24 1.24 1.17 1.17 1.18 1.08 1.05 1.10 1.22 1.29 1.29 1.36 1.42 1.51 1.51 1.51 1.43 1.45 1.49 1.39 1.39 1.39
1.21 1.23 1.21 1.23 1.18 1.15 1.16 1.17 1.20 1.24 1.28 1.30 1.37 1.43 1.49 1.47 1.49 1.43 1.41 1.46 1.42 1.37
1.21 1.23 1.23 1.20 1.22 1.22 1.22 1.20 1.15 1.20 1.23 1.27 1.31 1.35 1.39 1.42 1.44 1.39 1.36 1.36 1.36 1.34
1.24 1.24 1.19 1.21 1.23 1.27 1.18 1.18 1.11 1.16 1.17 1.22 1.28 1.31 1.32 1.30 1.38 1.38 1.34 1.33 1.31 1.27
1.25 1.20 1.17 1.20 1.24 1.24 1.20 1.12 1.11 1.10 1.05 1.08 1.16 1.24 1.31 1.33 1.32 1.32 1.36 1.39 1.35 1.31
1.22 1.20 1.22 1.23 1.21 1.19 1.20 1.15 1.11 1.09 1.06 1.04 1.08 1.17 1.23 1.29 1.30 1.30 1.29 1.28 1.28 1.31
1.23 1.27 1.24 1.22 1.20 1.19 1.20 1.14 1.13 1.11 1.08 1.09 1.08 1.07 1.15 1.18 1.19 1.22 1.24 1.27 1.27 1.27
1.21 1.21 1.16 1.14 1.10 1.14 1.16 1.16 1.16 1.13 1.07 1.02 1.03 1.07 1.07 1.14 1.17 1.19 1.18 1.14 1.20 1.27
1.14 1.10 1.06 1.07 1.05 1.06 1.08 1.13 1.12 1.11 1.09 1.03 1.03 1.03 1.06 1.11 1.13 1.17 1.19 1.22 1.26 1.30
1.05 1.03 1.05 1.07 1.05 1.08 1.11 1.10 1.11 1.12 1.11 1.08 1.07 1.07 1.07 1.12 1.20 1.21 1.22 1.27 1.33 1.38
1.20 1.13 1.12 1.08 1.08 1.13 1.16 1.15 1.14 1.17 1.16 1.14 1.14 1.19 1.19 1.25 1.29 1.29 1.30 1.39 1.45 1.48
1.43 1.39 1.32 1.38 1.42 1.51 1.53 1.49 1.56 1.54 1.56 1.57 1.54 1.60 1.60 1.63 1.61 1.52 1.52 1.61 1.65 1.70
1.58 1.57 1.60 1.66 1.68 1.68 1.69 1.71 1.70 1.71 1.78 1.81 1.84 1.85 1.86 1.87 1.82 1.74 1.69 1.68 1.70 1.78

GFSNIL_prec_pwat_045.txt.gz
Precipitable_Water
1.31 1.29 1.24 1.22 1.21 1.19 1.16 1.16 1.23 1.21 1.32 1.41 1.49 1.50 1.52 1.55 1.59 1.60 1.53 1.42 1.39 1.35
1.30 1.28 1.20 1.20 1.24 1.24 1.22 1.18 1.17 1.17 1.25 1.33 1.41 1.47 1.49 1.45 1.52 1.56 1.53 1.52 1.49 1.44
1.28 1.28 1.26 1.26 1.19 1.19 1.22 1.22 1.12 1.16 1.24 1.32 1.35 1.42 1.46 1.45 1.49 1.53 1.54 1.49 1.47 1.42
1.26 1.24 1.28 1.27 1.23 1.21 1.23 1.23 1.18 1.15 1.17 1.25 1.26 1.31 1.36 1.40 1.44 1.44 1.46 1.49 1.44 1.40
1.24 1.25 1.23 1.23 1.25 1.28 1.20 1.27 1.23 1.22 1.13 1.20 1.22 1.26 1.26 1.29 1.36 1.38 1.35 1.36 1.39 1.36
1.24 1.22 1.21 1.20 1.26 1.30 1.26 1.24 1.22 1.20 1.10 1.11 1.16 1.21 1.25 1.24 1.26 1.33 1.35 1.36 1.36 1.36
1.25 1.21 1.22 1.23 1.25 1.27 1.27 1.23 1.17 1.13 1.11 1.10 1.10 1.13 1.15 1.21 1.22 1.22 1.28 1.33 1.36 1.36
1.29 1.31 1.31 1.29 1.24 1.26 1.26 1.21 1.19 1.14 1.11 1.12 1.08 1.04 1.02 1.09 1.14 1.15 1.17 1.21 1.23 1.25
1.35 1.32 1.28 1.27 1.27 1.27 1.22 1.17 1.20 1.17 1.15 1.09 1.05 1.00 0.98 1.00 1.03 1.11 1.13 1.10 1.15 1.22
1.27 1.24 1.24 1.25 1.24 1.20 1.16 1.16 1.14 1.17 1.17 1.11 1.09 1.04 0.99 1.01 1.07 1.07 1.09 1.10 1.11 1.14
1.17 1.18 1.22 1.19 1.14 1.13 1.15 1.13 1.13 1.16 1.16 1.13 1.13 1.12 1.08 1.08 1.11 1.12 1.13 1.14 1.15 1.18
1.20 1.10 1.11 1.07 1.06 1.07 1.08 1.12 1.12 1.16 1.16 1.10 1.09 1.11 1.06 1.08 1.12 1.11 1.12 1.22 1.27 1.29
1.13 1.10 1.02 1.04 1.03 1.06 1.10 1.09 1.15 1.14 1.18 1.19 1.14 1.18 1.12 1.13 1.17 1.16 1.21 1.35 1.41 1.45
1.28 1.17 1.18 1.14 1.19 1.19 1.19 1.20 1.23 1.24 1.32 1.40 1.46 1.51 1.55 1.56 1.54 1.50 1.53 1.60 1.64 1.74

GFSNIL_prec_pwat_048.txt.gz
Precipitable_Water
1.20 1.26 1.33 1.39 1.36 1.30 1.29 1.28 1.36 1.43 1.44 1.48 1.56 1.57 1.61 1.68 1.69 1.65 1.51 1.45 1.42 1.37
1.23 1.31 1.35 1.38 1.37 1.32 1.36 1.32 1.30 1.30 1.33 1.35 1.43 1.51 1.54 1.54 1.60 1.62 1.58 1.57 1.52 1.43
1.20 1.30 1.36 1.39 1.32 1.32 1.33 1.31 1.24 1.23 1.22 1.26 1.35 1.41 1.46 1.49 1.55 1.58 1.61 1.53 1.50 1.47
1.16 1.24 1.34 1.36 1.33 1.33 1.35 1.30 1.23 1.18 1.15 1.22 1.32 1.37 1.39 1.41 1.49 1.49 1.52 1.56 1.49 1.46
1.14 1.20 1.28 1.32 1.34 1.36 1.30 1.31 1.25 1.25 1.19 1.16 1.22 1.34 1.34 1.34 1.39 1.42 1.41 1.45 1.46 1.42
1.18 1.21 1.23 1.26 1.32 1.38 1.32 1.30 1.27 1.28 1.24 1.17 1.14 1.23 1.28 1.29 1.31 1.38 1.42 1.43 1.40 1.38
1.19 1.23 1.23 1.24 1.29 1.32 1.33 1.30 1.26 1.27 1.28 1.23 1.14 1.16 1.25 1.26 1.25 1.28 1.34 1.40 1.41 1.41
1.19 1.22 1.25 1.27 1.27 1.29 1.30 1.28 1.27 1.26 1.27 1.26 1.20 1.13 1.12 1.16 1.16 1.21 1.21 1.29 1.35 1.37
1.28 1.27 1.26 1.26 1.26 1.28 1.27 1.27 1.28 1.23 1.20 1.19 1.18 1.11 1.04 1.05 1.06 1.12 1.15 1.15 1.20 1.23
1.38 1.32 1.27 1.29 1.30 1.27 1.24 1.26 1.25 1.23 1.20 1.14 1.16 1.08 1.01 0.99 1.01 1.02 1.06 1.12 1.14 1.14
1.37 1.38 1.42 1.40 1.33 1.31 1.30 1.27 1.23 1.20 1.19 1.17 1.15 1.11 1.06 1.02 1.05 1.06 1.10 1.15 1.17 1.15
1.33 1.37 1.38 1.36 1.35 1.34 1.30 1.27 1.21 1.18 1.16 1.14 1.11 1.10 1.05 1.09 1.12 1.10 1.09 1.14 1.17 1.21
1.31 1.27 1.22 1.30 1.32 1.32 1.28 1.20 1.18 1.14 1.20 1.17 1.12 1.16 1.08 1.11 1.13 1.09 1.09 1.15 1.20 1.21
1.41 1.36 1.34 1.28 1.24 1.23 1.20 1.15 1.10 1.13 1.18 1.17 1.16 1.17 1.14 1.12 1.13 1.08 1.07 1.09 1.14 1.26

GFSNIL_prec_pwat_051.txt.gz
Precipitable_Water
1.18 1.16 1.12 1.29 1.44 1.40 1.39 1.40 1.64 1.55 1.51 1.61 1.68 1.61 1.71 1.70 1.65 1.57 1.48 1.46 1.37 1.41
1.08 1.06 1.13 1.19 1.36 1.56 1.47 1.46 1.45 1.47 1.39 1.46 1.54 1.60 1.59 1.56 1.60 1.78 1.58 1.55 1.43 1.36
1.13 1.15 1.14 1.28 1.42 1.44 1.47 1.39 1.54 1.39 1.33 1.36 1.41 1.49 1.50 1.49 1.60 1.56 1.58 1.51 1.57 1.47
1.17 1.22 1.20 1.29 1.34 1.42 1.42 1.47 1.37 1.39 1.29 1.27 1.28 1.38 1.45 1.39 1.56 1.53 1.51 1.60 1.55 1.49
1.24 1.21 1.21 1.18 1.30 1.38 1.35 1.40 1.43 1.40 1.32 1.24 1.25 1.37 1.36 1.34 1.34 1.48 1.46 1.51 1.47 1.47
1.28 1.22 1.15 1.17 1.24 1.33 1.31 1.30 1.34 1.37 1.32 1.25 1.22 1.28 1.38 1.35 1.31 1.38 1.42 1.44 1.43 1.43
1.23 1.20 1.15 1.15 1.19 1.25 1.27 1.24 1.25 1.30 1.31 1.31 1.29 1.25 1.27 1.35 1.29 1.30 1.36 1.43 1.46 1.43
1.22 1.19 1.17 1.14 1.19 1.23 1.28 1.24 1.25 1.25 1.27 1.28 1.30 1.25 1.19 1.26 1.29 1.28 1.28 1.35 1.39 1.41
1.26 1.20 1.16 1.15 1.19 1.24 1.28 1.27 1.25 1.25 1.24 1.22 1.23 1.21 1.17 1.18 1.18 1.23 1.20 1.20 1.26 1.29
1.41 1.31 1.19 1.20 1.22 1.21 1.24 1.30 1.26 1.24 1.25 1.21 1.21 1.17 1.14 1.11 1.11 1.13 1.09 1.11 1.17 1.18
1.49 1.38 1.35 1.29 1.23 1.23 1.25 1.23 1.24 1.24 1.23 1.22 1.18 1.11 1.11 1.07 1.07 1.05 1.03 1.08 1.11 1.10
1.56 1.50 1.42 1.35 1.31 1.29 1.29 1.27 1.27 1.28 1.23 1.19 1.14 1.14 1.11 1.13 1.10 1.05 1.03 1.07 1.09 1.12
1.65 1.59 1.45 1.39 1.43 1.47 1.43 1.33 1.29 1.25 1.28 1.26 1.17 1.20 1.15 1.14 1.15 1.07 1.07 1.14 1.18 1.19
1.74 1.66 1.53 1.48 1.53 1.54 1.49 1.45 1.40 1.36 1.36 1.32 1.25 1.24 1.16 1.12 1.12 1.06 1.10 1.08 1.07 1.18

GFSNIL_prec_pwat_054.txt.gz
Precipitable_Water
1.22 1.14 1.25 1.38 1.32 1.47 1.43 1.51 1.57 1.60 1.52 1.50 1.59 1.66 1.69 1.67 1.56 1.41 1.31 1.33 1.30 1.34
1.21 1.15 1.15 1.20 1.32 1.40 1.38 1.49 1.57 1.58 1.54 1.45 1.53 1.57 1.58 1.56 1.56 1.74 1.51 1.36 1.28 1.32
1.02 1.11 1.11 1.09 1.10 1.31 1.41 1.46 1.74 1.58 1.48 1.35 1.33 1.50 1.56 1.45 1.58 1.55 1.64 1.46 1.48 1.38
1.02 1.00 1.00 1.11 1.01 1.23 1.37 1.50 1.46 1.58 1.47 1.35 1.28 1.36 1.38 1.35 1.55 1.53 1.43 1.52 1.54 1.48
1.22 1.09 0.99 0.90 1.15 1.20 1.32 1.39 1.42 1.39 1.42 1.30 1.26 1.28 1.26 1.29 1.37 1.53 1.46 1.41 1.45 1.51
1.27 1.23 1.14 1.04 1.02 1.22 1.20 1.28 1.29 1.34 1.23 1.26 1.20 1.20 1.24 1.31 1.24 1.35 1.47 1.50 1.39 1.35
1.28 1.23 1.21 1.26 1.12 1.21 1.24 1.18 1.24 1.24 1.26 1.24 1.21 1.17 1.22 1.30 1.31 1.24 1.31 1.40 1.38 1.37
1.30 1.30 1.29 1.27 1.26 1.15 1.17 1.20 1.23 1.23 1.27 1.26 1.24 1.21 1.19 1.19 1.26 1.26 1.22 1.26 1.35 1.40
1.33 1.32 1.30 1.27 1.27 1.25 1.16 1.18 1.21 1.23 1.22 1.26 1.24 1.24 1.23 1.20 1.17 1.25 1.24 1.19 1.20 1.34
1.41 1.36 1.28 1.31 1.27 1.26 1.21 1.17 1.15 1.19 1.23 1.22 1.25 1.22 1.21 1.20 1.21 1.21 1.20 1.25 1.22 1.22
1.44 1.43 1.46 1.34 1.27 1.24 1.28 1.19 1.13 1.15 1.20 1.24 1.27 1.26 1.21 1.19 1.19 1.19 1.18 1.18 1.17 1.16
1.39 1.43 1.46 1.35 1.29 1.25 1.27 1.24 1.19 1.21 1.19 1.17 1.24 1.29 1.25 1.20 1.15 1.13 1.06 1.06 1.08 1.15
1.60 1.57 1.53 1.50 1.43 1.38 1.35 1.23 1.25 1.22 1.25 1.26 1.23 1.27 1.26 1.22 1.17 1.11 1.09 1.09 1.06 1.06
1.75 1.68 1.73 1.76 1.69 1.55 1.48 1.46 1.38 1.29 1.33 1.36 1.33 1.28 1.25 1.21 1.19 1.14 1.11 1.07 1.06 1.14

GFSNIL_prec_pwat_057.txt.gz
Precipitable_Water
1.15 1.16 1.24 1.35 1.43 1.48 1.49 1.39 1.58 1.59 1.57 1.45 1.48 1.62 1.62 1.52 1.33 1.42 1.38 1.37 1.45 1.44
1.16 1.08 1.17 1.27 1.38 1.43 1.55 1.44 1.53 1.59 1.53 1.53 1.48 1.43 1.56 1.56 1.45 1.42 1.32 1.29 1.27 1.23
1.08 1.10 1.10 1.19 1.26 1.28 1.33 1.39 1.43 1.54 1.53 1.50 1.45 1.37 1.46 1.45 1.56 1.52 1.51 1.40 1.28 1.21
1.00 1.12 1.09 1.12 1.15 1.21 1.21 1.40 1.40 1.49 1.51 1.47 1.38 1.24 1.25 1.39 1.40 1.47 1.44 1.52 1.35 1.38
0.95 0.98 1.03 1.02 1.08 1.10 1.13 1.26 1.53 1.49 1.41 1.40 1.35 1.28 1.18 1.18 1.27 1.39 1.44 1.44 1.42 1.45
1.22 0.96 0.94 0.93 0.98 1.00 1.01 1.10 1.36 1.50 1.38 1.30 1.26 1.19 1.14 1.14 1.14 1.24 1.36 1.45 1.46 1.35
1.31 1.23 1.01 0.96 0.90 0.99 0.98 1.03 1.16 1.30 1.32 1.26 1.20 1.18 1.14 1.13 1.10 1.14 1.23 1.32 1.40 1.41
1.30 1.36 1.32 1.15 1.03 0.92 1.07 1.00 1.12 1.12 1.25 1.24 1.19 1.13 1.12 1.15 1.10 1.10 1.14 1.14 1.23 1.35
1.36 1.28 1.30 1.28 1.21 1.12 0.97 1.15 1.08 1.08 1.14 1.20 1.22 1.18 1.17 1.20 1.18 1.17 1.11 1.08 1.13 1.14
1.48 1.28 1.22 1.28 1.25 1.20 1.15 1.10 1.19 1.16 1.12 1.09 1.16 1.17 1.14 1.18 1.21 1.17 1.16 1.14 1.13 1.13
1.68 1.39 1.30 1.24 1.21 1.25 1.26 1.18 1.15 1.18 1.19 1.11 1.12 1.16 1.14 1.17 1.24 1.23 1.21 1.22 1.20 1.16
1.68 1.52 1.41 1.29 1.20 1.18 1.22 1.23 1.19 1.23 1.24 1.17 1.13 1.17 1.16 1.18 1.19 1.21 1.20 1.24 1.23 1.17
1.75 1.59 1.44 1.43 1.42 1.38 1.28 1.19 1.27 1.21 1.23 1.23 1.14 1.18 1.17 1.20 1.21 1.14 1.11 1.19 1.20 1.20
1.75 1.63 1.60 1.56 1.60 1.54 1.46 1.35 1.24 1.22 1.26 1.28 1.28 1.26 1.26 1.27 1.28 1.18 1.10 1.08 1.07 1.13

GFSNIL_prec_pwat_060.txt.gz
Precipitable_Water
1.30 1.44 1.48 1.49 1.42 1.46 1.56 1.52 1.62 1.53 1.54 1.53 1.49 1.62 1.47 1.35 1.36 1.40 1.40 1.43 1.45 1.38
1.15 1.27 1.34 1.42 1.46 1.46 1.54 1.47 1.56 1.61 1.57 1.54 1.51 1.44 1.49 1.41 1.27 1.29 1.31 1.30 1.39 1.37
1.15 1.17 1.27 1.31 1.37 1.45 1.53 1.59 1.46 1.51 1.54 1.53 1.47 1.46 1.41 1.41 1.44 1.30 1.30 1.25 1.22 1.21
1.07 1.15 1.19 1.20 1.28 1.36 1.46 1.55 1.44 1.45 1.46 1.46 1.42 1.42 1.32 1.32 1.37 1.36 1.36 1.34 1.27 1.16
1.06 1.04 1.12 1.11 1.19 1.29 1.33 1.45 1.45 1.42 1.45 1.46 1.39 1.34 1.24 1.17 1.31 1.32 1.35 1.35 1.32 1.24
1.28 1.04 0.98 1.11 1.14 1.22 1.24 1.32 1.45 1.47 1.40 1.38 1.36 1.30 1.21 1.15 1.14 1.20 1.32 1.41 1.38 1.32
1.34 1.30 1.11 0.96 1.09 1.13 1.21 1.19 1.24 1.34 1.43 1.40 1.37 1.31 1.25 1.15 1.08 1.09 1.15 1.32 1.45 1.47
1.42 1.43 1.39 1.25 1.05 0.98 1.07 1.13 1.17 1.16 1.28 1.43 1.39 1.30 1.21 1.15 1.05 1.03 1.03 1.12 1.21 1.32
1.51 1.45 1.39 1.37 1.29 1.19 0.93 1.01 1.04 1.05 1.02 1.20 1.31 1.32 1.26 1.18 1.07 1.05 1.03 0.98 1.10 1.19
1.64 1.56 1.40 1.38 1.36 1.28 1.20 1.00 1.00 1.03 1.04 1.05 1.19 1.25 1.23 1.21 1.17 1.12 1.09 1.04 1.05 1.05
1.83 1.69 1.63 1.41 1.30 1.31 1.32 1.20 1.05 1.05 1.05 1.05 1.11 1.15 1.13 1.14 1.18 1.13 1.14 1.13 1.12 1.08
1.92 1.87 1.81 1.53 1.29 1.29 1.32 1.28 1.19 1.14 1.18 1.10 1.10 1.12 1.12 1.12 1.15 1.11 1.08 1.15 1.17 1.17
1.85 1.93 1.87 1.71 1.51 1.39 1.37 1.27 1.30 1.25 1.21 1.23 1.21 1.29 1.20 1.15 1.12 1.05 1.05 1.12 1.15 1.21
1.82 1.85 1.92 1.83 1.80 1.63 1.54 1.47 1.31 1.25 1.25 1.23 1.24 1.27 1.25 1.19 1.16 1.10 1.03 1.04 1.08 1.11

GFSNIL_prec_pwat_063.txt.gz
Precipitable_Water
1.22 1.34 1.44 1.51 1.57 1.57 1.57 1.59 1.70 1.67 1.63 1.68 1.55 1.58 1.41 1.41 1.46 1.46 1.43 1.43 1.42 1.38
1.21 1.27 1.37 1.45 1.57 1.56 1.58 1.63 1.64 1.66 1.52 1.64 1.59 1.54 1.60 1.40 1.33 1.41 1.42 1.41 1.41 1.41
1.15 1.18 1.27 1.44 1.42 1.47 1.50 1.60 1.59 1.60 1.66 1.60 1.69 1.61 1.50 1.51 1.43 1.29 1.29 1.36 1.40 1.40
1.13 1.11 1.16 1.24 1.34 1.38 1.49 1.56 1.57 1.55 1.56 1.62 1.60 1.61 1.56 1.46 1.45 1.39 1.24 1.27 1.26 1.25
1.19 1.12 1.03 1.09 1.20 1.34 1.34 1.49 1.63 1.59 1.52 1.56 1.55 1.55 1.48 1.42 1.40 1.38 1.33 1.33 1.27 1.27
1.26 1.18 1.07 0.98 1.08 1.23 1.30 1.33 1.44 1.45 1.44 1.46 1.47 1.50 1.45 1.41 1.31 1.34 1.36 1.41 1.40 1.35
1.32 1.27 1.19 1.11 0.98 1.04 1.14 1.21 1.29 1.40 1.42 1.44 1.46 1.47 1.43 1.37 1.30 1.22 1.25 1.29 1.36 1.42
1.47 1.45 1.36 1.28 1.19 0.98 0.99 1.07 1.17 1.27 1.36 1.42 1.44 1.43 1.41 1.35 1.29 1.26 1.18 1.21 1.23 1.31
1.52 1.55 1.49 1.39 1.32 1.27 1.13 0.94 1.00 1.07 1.18 1.24 1.33 1.35 1.31 1.34 1.26 1.23 1.17 1.12 1.18 1.19
1.61 1.52 1.54 1.52 1.46 1.37 1.29 1.27 1.12 0.93 0.98 1.06 1.16 1.22 1.21 1.26 1.29 1.20 1.15 1.10 1.11 1.14
1.75 1.67 1.59 1.57 1.50 1.45 1.42 1.33 1.28 1.23 1.12 0.95 0.98 1.01 1.06 1.06 1.20 1.25 1.20 1.19 1.16 1.14
1.84 1.80 1.72 1.64 1.51 1.50 1.46 1.44 1.35 1.32 1.29 1.21 1.06 0.99 0.96 0.98 1.07 1.11 1.07 1.10 1.19 1.20
1.88 1.88 1.82 1.78 1.73 1.61 1.52 1.48 1.49 1.36 1.30 1.27 1.22 1.18 1.09 1.05 1.03 1.04 1.04 1.06 1.08 1.12
1.78 1.88 1.96 1.97 1.96 1.86 1.64 1.56 1.51 1.51 1.43 1.29 1.25 1.25 1.22 1.22 1.19 1.04 1.02 0.98 0.96 0.97

GFSNIL_prec_pwat_066.txt.gz
Precipitable_Water
1.36 1.31 1.28 1.36 1.44 1.51 1.49 1.51 1.69 1.70 1.68 1.64 1.58 1.55 1.64 1.50 1.43 1.45 1.45 1.42 1.41 1.39
1.36 1.28 1.23 1.33 1.46 1.50 1.56 1.53 1.67 1.79 1.68 1.63 1.66 1.58 1.57 1.52 1.41 1.46 1.45 1.43 1.42 1.40
1.35 1.27 1.22 1.31 1.39 1.47 1.51 1.59 1.56 1.66 1.69 1.61 1.62 1.63 1.51 1.49 1.50 1.45 1.43 1.48 1.41 1.39
1.34 1.33 1.24 1.20 1.31 1.38 1.46 1.47 1.49 1.53 1.65 1.66 1.66 1.63 1.61 1.51 1.44 1.40 1.36 1.34 1.35 1.38
1.37 1.35 1.25 1.12 1.17 1.31 1.32 1.39 1.46 1.48 1.53 1.61 1.63 1.65 1.59 1.54 1.51 1.39 1.37 1.37 1.29 1.26
1.45 1.38 1.31 1.19 1.08 1.13 1.21 1.28 1.31 1.41 1.45 1.45 1.50 1.53 1.55 1.57 1.51 1.46 1.36 1.42 1.39 1.36
1.47 1.46 1.41 1.35 1.23 1.10 1.08 1.15 1.23 1.27 1.31 1.34 1.39 1.41 1.45 1.47 1.47 1.40 1.35 1.29 1.37 1.42
1.48 1.49 1.49 1.44 1.37 1.30 1.16 1.04 1.09 1.17 1.23 1.26 1.29 1.29 1.33 1.36 1.37 1.35 1.29 1.31 1.27 1.27
1.57 1.53 1.46 1.43 1.40 1.36 1.31 1.24 1.02 0.99 1.07 1.12 1.22 1.27 1.28 1.27 1.27 1.30 1.30 1.22 1.28 1.32
1.55 1.53 1.54 1.50 1.45 1.38 1.32 1.35 1.29 1.11 0.95 0.94 1.04 1.16 1.21 1.22 1.21 1.19 1.16 1.18 1.19 1.19
1.70 1.70 1.66 1.63 1.52 1.46 1.43 1.37 1.34 1.34 1.30 1.12 0.96 0.96 1.02 1.11 1.14 1.10 1.07 1.06 1.09 1.13
1.83 1.82 1.77 1.70 1.61 1.61 1.56 1.48 1.42 1.40 1.40 1.36 1.31 1.25 1.09 0.98 1.00 1.00 0.97 1.00 0.97 0.99
1.88 1.88 1.83 1.77 1.71 1.71 1.69 1.61 1.58 1.48 1.46 1.43 1.38 1.41 1.36 1.34 1.18 0.93 0.87 0.91 0.92 0.91
1.76 1.79 1.91 1.87 1.88 1.83 1.73 1.67 1.61 1.58 1.55 1.44 1.40 1.35 1.32 1.34 1.35 1.21 1.01 0.89 0.87 0.91

GFSNIL_prec_pwat_069.txt.gz
Precipitable_Water
1.46 1.43 1.43 1.49 1.57 1.61 1.62 1.55 1.66 1.72 1.75 1.60 1.63 1.68 1.66 1.49 1.41 1.43 1.43 1.39 1.43 1.39
1.47 1.45 1.40 1.43 1.46 1.54 1.61 1.62 1.66 1.73 1.73 1.64 1.61 1.60 1.57 1.51 1.41 1.43 1.45 1.44 1.42 1.40
1.46 1.50 1.45 1.43 1.40 1.46 1.56 1.63 1.67 1.69 1.73 1.66 1.65 1.61 1.59 1.51 1.52 1.44 1.42 1.41 1.40 1.39
1.45 1.48 1.49 1.37 1.39 1.44 1.52 1.60 1.60 1.65 1.65 1.63 1.59 1.61 1.58 1.51 1.41 1.41 1.38 1.40 1.37 1.37
1.51 1.50 1.49 1.39 1.32 1.39 1.46 1.50 1.49 1.52 1.56 1.59 1.64 1.65 1.60 1.59 1.53 1.43 1.32 1.32 1.32 1.27
1.55 1.49 1.47 1.46 1.39 1.32 1.38 1.45 1.45 1.43 1.46 1.47 1.58 1.64 1.60 1.61 1.58 1.51 1.44 1.37 1.33 1.29
1.55 1.53 1.50 1.53 1.51 1.44 1.30 1.29 1.35 1.38 1.37 1.44 1.48 1.52 1.55 1.53 1.51 1.50 1.48 1.41 1.38 1.35
1.47 1.52 1.56 1.55 1.52 1.52 1.47 1.32 1.21 1.27 1.35 1.38 1.40 1.42 1.42 1.43 1.41 1.40 1.39 1.40 1.38 1.29
1.56 1.51 1.51 1.51 1.53 1.52 1.49 1.45 1.38 1.21 1.17 1.25 1.32 1.28 1.28 1.30 1.31 1.33 1.30 1.31 1.35 1.36
1.58 1.53 1.55 1.54 1.53 1.49 1.46 1.48 1.42 1.35 1.29 1.10 1.13 1.25 1.26 1.23 1.23 1.24 1.21 1.20 1.23 1.27
1.69 1.60 1.58 1.60 1.51 1.47 1.49 1.45 1.41 1.39 1.37 1.30 1.20 1.06 1.05 1.15 1.23 1.25 1.21 1.17 1.14 1.08
1.85 1.78 1.73 1.63 1.59 1.56 1.55 1.52 1.47 1.47 1.43 1.37 1.32 1.32 1.20 1.04 1.03 1.08 1.13 1.16 1.13 1.09
1.93 1.86 1.84 1.83 1.81 1.71 1.67 1.61 1.61 1.57 1.56 1.51 1.42 1.44 1.38 1.37 1.31 1.13 1.01 1.02 1.03 1.01
1.74 1.88 1.89 1.91 1.98 1.94 1.87 1.75 1.65 1.62 1.61 1.57 1.53 1.49 1.45 1.43 1.40 1.30 1.23 1.19 1.06 0.96

GFSNIL_prec_pwat_072.txt.gz
Precipitable_Water
1.58 1.51 1.61 1.67 1.67 1.69 1.73 1.74 1.69 1.77 1.77 1.68 1.66 1.63 1.56 1.46 1.40 1.45 1.45 1.39 1.50 1.45
1.61 1.53 1.46 1.63 1.70 1.71 1.73 1.77 1.77 1.76 1.77 1.66 1.66 1.60 1.68 1.55 1.41 1.49 1.45 1.44 1.45 1.47
1.56 1.59 1.56 1.56 1.58 1.59 1.66 1.70 1.74 1.77 1.81 1.72 1.66 1.68 1.56 1.50 1.49 1.44 1.44 1.44 1.49 1.45
1.57 1.57 1.60 1.54 1.54 1.58 1.61 1.66 1.71 1.79 1.84 1.77 1.69 1.65 1.58 1.53 1.51 1.50 1.45 1.44 1.42 1.37
1.67 1.64 1.57 1.56 1.51 1.54 1.54 1.63 1.69 1.79 1.76 1.75 1.67 1.64 1.62 1.55 1.51 1.43 1.35 1.41 1.39 1.36
1.62 1.66 1.58 1.58 1.59 1.53 1.50 1.50 1.59 1.65 1.71 1.67 1.69 1.61 1.69 1.66 1.60 1.57 1.50 1.46 1.39 1.35
1.64 1.61 1.64 1.63 1.63 1.58 1.57 1.47 1.44 1.50 1.56 1.66 1.67 1.65 1.68 1.70 1.62 1.63 1.59 1.55 1.50 1.39
1.57 1.65 1.65 1.64 1.63 1.65 1.62 1.58 1.51 1.37 1.37 1.49 1.61 1.62 1.58 1.60 1.58 1.55 1.52 1.56 1.50 1.42
1.66 1.65 1.61 1.62 1.61 1.59 1.64 1.62 1.59 1.51 1.36 1.25 1.33 1.45 1.49 1.52 1.53 1.48 1.43 1.41 1.41 1.43
1.67 1.65 1.65 1.64 1.62 1.55 1.57 1.58 1.56 1.53 1.47 1.36 1.29 1.22 1.31 1.34 1.34 1.37 1.38 1.39 1.38 1.37
1.77 1.73 1.76 1.76 1.69 1.67 1.63 1.54 1.51 1.51 1.48 1.40 1.36 1.33 1.23 1.20 1.27 1.31 1.32 1.36 1.38 1.31
1.81 1.90 1.84 1.69 1.66 1.68 1.73 1.71 1.59 1.55 1.51 1.45 1.36 1.34 1.28 1.25 1.20 1.14 1.18 1.29 1.32 1.33
1.78 1.74 1.68 1.79 1.82 1.86 1.83 1.77 1.77 1.62 1.59 1.54 1.44 1.43 1.34 1.29 1.26 1.17 1.08 1.05 1.13 1.20
1.59 1.63 1.65 1.84 1.94 1.96 1.96 1.89 1.83 1.73 1.66 1.61 1.54 1.51 1.45 1.40 1.34 1.24 1.19 1.15 1.07 1.07

GFSNIL_prec_pwat_078.txt.gz
Precipitable_Water
1.48 1.65 1.73 1.92 1.95 1.84 1.93 1.93 1.98 1.85 1.70 1.67 1.60 1.57 1.47 1.50 1.27 1.29 1.14 1.18 1.35 1.51
1.57 1.44 1.49 1.64 1.78 1.81 2.05 2.04 2.07 1.89 1.69 1.64 1.72 1.60 1.64 1.41 1.33 1.36 1.43 1.29 1.29 1.56
1.62 1.53 1.51 1.64 1.61 1.79 1.95 2.20 1.92 1.90 1.79 1.69 1.75 1.74 1.67 1.54 1.63 1.46 1.50 1.29 1.22 1.29
1.64 1.60 1.55 1.50 1.48 1.57 1.71 1.71 1.98 1.70 1.62 1.99 1.71 1.60 1.58 1.64 1.76 1.54 1.32 1.39 1.41 1.31
1.68 1.64 1.63 1.57 1.54 1.60 1.54 1.57 1.70 1.61 1.80 1.97 1.81 1.77 1.68 1.53 1.64 1.62 1.39 1.24 1.41 1.47
1.69 1.66 1.63 1.63 1.65 1.63 1.67 1.55 1.47 1.47 1.56 1.66 1.82 1.78 1.86 1.69 1.50 1.60 1.58 1.42 1.40 1.33
1.63 1.64 1.62 1.71 1.70 1.72 1.71 1.70 1.58 1.50 1.51 1.59 1.71 1.72 1.75 1.79 1.68 1.54 1.66 1.63 1.49 1.47
2.09 2.00 1.82 1.67 1.77 1.80 1.77 1.71 1.68 1.60 1.56 1.57 1.59 1.69 1.59 1.62 1.66 1.68 1.64 1.71 1.74 1.58
1.95 2.24 1.85 1.73 1.69 1.75 1.77 1.78 1.80 1.65 1.58 1.53 1.53 1.47 1.55 1.52 1.57 1.62 1.53 1.52 1.58 1.61
1.92 1.73 1.75 1.98 1.82 1.69 1.75 1.82 1.79 1.78 1.65 1.60 1.58 1.51 1.38 1.43 1.46 1.45 1.51 1.56 1.58 1.54
1.71 1.82 1.94 1.83 1.73 1.76 1.76 1.70 1.77 1.77 1.78 1.67 1.66 1.61 1.53 1.45 1.39 1.39 1.34 1.39 1.54 1.51
1.53 1.63 1.76 1.85 1.80 1.79 1.77 1.74 1.76 1.80 1.76 1.68 1.76 1.74 1.71 1.61 1.49 1.37 1.30 1.33 1.30 1.27
1.35 1.42 1.52 1.63 1.74 1.81 1.81 1.78 1.84 1.83 1.83 1.82 1.76 1.84 1.84 1.81 1.68 1.50 1.38 1.34 1.29 1.30
1.12 1.25 1.30 1.40 1.56 1.75 1.78 1.74 1.77 1.76 1.87 1.92 1.90 1.87 1.83 1.83 1.80 1.68 1.54 1.46 1.37 1.35

GFSNIL_prec_pwat_081.txt.gz
Precipitable_Water
1.63 1.56 1.85 1.80 1.81 1.81 1.95 1.85 1.80 1.80 1.72 1.67 1.51 1.63 1.38 1.24 1.20 1.33 1.23 1.24 1.27 1.48
1.54 1.58 1.62 1.64 1.90 1.82 1.99 2.02 1.85 1.95 1.80 1.67 1.57 1.55 1.54 1.41 1.17 1.27 1.20 1.07 1.32 1.40
1.50 1.54 1.58 1.69 1.69 1.76 1.80 1.98 1.96 1.90 1.68 1.70 1.70 1.60 1.56 1.41 1.40 1.25 1.29 1.28 1.25 1.42
1.70 1.65 1.54 1.55 1.71 1.84 1.80 1.94 1.82 1.82 1.74 1.63 1.71 1.65 1.60 1.58 1.59 1.39 1.27 1.19 1.27 1.40
1.65 1.73 1.59 1.54 1.50 1.66 1.61 1.75 1.76 1.71 1.69 1.73 1.93 1.70 1.67 1.54 1.55 1.59 1.46 1.29 1.24 1.25
1.71 1.71 1.73 1.67 1.59 1.59 1.59 1.55 1.55 1.51 1.50 1.65 1.82 1.78 1.79 1.76 1.55 1.61 1.60 1.36 1.27 1.27
1.84 1.85 1.86 1.84 1.75 1.64 1.61 1.61 1.54 1.49 1.47 1.48 1.59 1.75 1.82 1.79 1.73 1.54 1.55 1.55 1.45 1.41
1.98 1.92 1.98 1.96 1.99 1.86 1.78 1.74 1.74 1.61 1.56 1.56 1.54 1.61 1.66 1.63 1.61 1.62 1.57 1.55 1.65 1.58
2.02 1.80 1.77 2.02 2.11 1.90 1.91 1.88 1.88 1.76 1.65 1.54 1.58 1.54 1.54 1.55 1.51 1.57 1.56 1.52 1.59 1.64
1.93 1.90 1.87 1.81 1.87 1.84 1.88 1.89 1.84 1.81 1.83 1.76 1.63 1.60 1.58 1.58 1.62 1.55 1.51 1.49 1.49 1.50
1.82 1.80 1.82 1.92 1.78 1.83 1.93 1.90 1.86 1.83 1.83 1.84 1.81 1.76 1.67 1.59 1.57 1.53 1.50 1.52 1.50 1.48
1.49 1.59 1.62 1.61 1.72 1.85 1.84 1.78 1.77 1.83 1.86 1.87 1.86 1.90 1.83 1.86 1.69 1.55 1.50 1.50 1.51 1.47
1.34 1.36 1.43 1.51 1.58 1.66 1.79 1.80 1.76 1.80 1.79 1.88 1.87 1.91 1.90 1.88 1.82 1.77 1.69 1.64 1.56 1.50
1.04 1.15 1.23 1.29 1.34 1.43 1.52 1.57 1.66 1.70 1.74 1.73 1.85 1.92 1.95 1.94 1.89 1.83 1.78 1.76 1.66 1.63

GFSNIL_prec_pwat_084.txt.gz
Precipitable_Water
1.63 1.57 1.74 1.83 1.89 1.85 1.91 1.75 1.70 1.74 1.71 1.67 1.67 1.53 1.45 1.37 1.36 1.42 1.36 1.30 1.44 1.54
1.55 1.64 1.63 1.85 1.88 1.83 2.05 1.99 1.78 1.84 1.76 1.63 1.55 1.54 1.50 1.27 1.16 1.23 1.34 1.30 1.40 1.49
1.46 1.57 1.53 1.69 1.68 1.87 1.90 2.04 1.92 1.91 1.86 1.69 1.59 1.51 1.57 1.40 1.32 1.11 1.20 1.22 1.23 1.34
1.42 1.53 1.54 1.58 1.67 1.71 1.78 1.83 1.96 2.07 1.83 1.67 1.55 1.59 1.59 1.54 1.43 1.21 1.15 1.19 1.14 1.24
1.64 1.74 1.67 1.55 1.56 1.69 1.76 1.79 1.90 1.86 1.85 1.74 1.68 1.65 1.59 1.55 1.53 1.40 1.32 1.23 1.16 1.18
1.66 1.77 1.81 1.73 1.64 1.66 1.66 1.63 1.73 1.75 1.64 1.61 1.84 1.86 1.72 1.68 1.52 1.49 1.48 1.44 1.31 1.20
1.81 1.79 1.85 1.89 1.82 1.76 1.72 1.62 1.58 1.58 1.44 1.48 1.60 1.73 1.80 1.76 1.69 1.60 1.54 1.58 1.45 1.27
1.97 1.98 1.93 1.92 1.82 1.81 1.83 1.79 1.68 1.62 1.57 1.50 1.52 1.58 1.72 1.77 1.76 1.66 1.60 1.57 1.52 1.54
1.89 1.87 1.93 1.96 1.93 1.87 1.90 1.96 1.91 1.84 1.73 1.68 1.64 1.63 1.64 1.70 1.63 1.64 1.63 1.56 1.57 1.63
1.90 1.90 1.90 1.94 1.86 1.85 1.85 1.95 1.96 1.92 1.94 1.81 1.74 1.74 1.65 1.64 1.60 1.60 1.63 1.64 1.63 1.59
1.66 1.68 1.83 1.84 1.82 1.79 1.86 1.79 1.85 1.88 1.88 1.90 1.92 1.84 1.80 1.71 1.68 1.62 1.62 1.61 1.59 1.58
1.48 1.51 1.46 1.58 1.71 1.77 1.76 1.76 1.78 1.84 1.85 1.83 1.85 1.96 1.99 1.88 1.80 1.66 1.61 1.58 1.62 1.62
1.31 1.32 1.35 1.39 1.52 1.58 1.64 1.69 1.73 1.69 1.78 1.75 1.72 1.79 1.91 1.99 1.90 1.80 1.76 1.75 1.67 1.65
0.95 1.05 1.13 1.17 1.29 1.36 1.41 1.48 1.53 1.58 1.58 1.67 1.70 1.68 1.77 1.92 1.93 1.83 1.78 1.85 1.82 1.82

GFSNIL_prec_pwat_087.txt.gz
Precipitable_Water
1.44 1.49 1.63 1.74 1.95 1.91 1.78 1.69 1.61 1.66 1.64 1.61 1.58 1.44 1.50 1.42 1.42 1.49 1.41 1.43 1.47 1.59
1.37 1.50 1.58 1.73 1.86 1.91 1.92 1.93 1.74 1.73 1.77 1.70 1.59 1.55 1.49 1.37 1.31 1.35 1.38 1.37 1.46 1.50
1.33 1.50 1.64 1.70 1.82 1.84 1.86 2.09 1.90 1.84 1.84 1.83 1.72 1.60 1.50 1.45 1.30 1.24 1.28 1.32 1.31 1.43
1.31 1.49 1.66 1.60 1.69 1.78 1.91 1.94 2.05 1.95 1.99 1.83 1.71 1.56 1.50 1.48 1.43 1.24 1.11 1.20 1.27 1.32
1.43 1.50 1.56 1.62 1.68 1.75 1.73 1.82 1.89 2.01 1.97 1.84 1.71 1.55 1.55 1.55 1.55 1.49 1.22 1.18 1.17 1.10
1.47 1.50 1.59 1.63 1.67 1.64 1.67 1.75 1.84 1.93 1.85 1.85 1.72 1.66 1.67 1.64 1.59 1.55 1.47 1.42 1.36 1.32
1.63 1.64 1.75 1.79 1.78 1.73 1.69 1.74 1.76 1.79 1.84 1.79 1.72 1.72 1.79 1.76 1.74 1.66 1.62 1.56 1.53 1.49
1.91 1.77 1.79 1.84 1.90 1.85 1.72 1.70 1.70 1.67 1.75 1.72 1.62 1.62 1.66 1.70 1.70 1.72 1.65 1.69 1.63 1.53
1.81 1.80 1.88 1.90 1.87 1.90 1.85 1.77 1.74 1.72 1.69 1.68 1.71 1.70 1.68 1.68 1.67 1.78 1.73 1.56 1.62 1.66
1.83 1.84 1.89 1.89 1.88 1.88 1.86 1.84 1.80 1.82 1.83 1.77 1.80 1.81 1.78 1.72 1.68 1.64 1.65 1.63 1.64 1.64
1.60 1.67 1.64 1.60 1.77 1.79 1.83 1.78 1.74 1.80 1.86 1.88 1.95 1.95 1.89 1.87 1.80 1.68 1.60 1.63 1.66 1.67
1.45 1.43 1.49 1.43 1.51 1.61 1.73 1.73 1.74 1.77 1.70 1.72 1.79 1.89 1.91 1.90 1.86 1.80 1.68 1.67 1.68 1.63
1.31 1.34 1.37 1.35 1.27 1.37 1.51 1.58 1.67 1.65 1.70 1.70 1.70 1.82 1.85 1.86 1.85 1.79 1.77 1.81 1.80 1.78
0.99 1.08 1.15 1.20 1.20 1.13 1.23 1.37 1.45 1.51 1.61 1.63 1.68 1.65 1.82 1.74 1.75 1.77 1.80 1.82 1.84 1.86

GFSNIL_prec_pwat_090.txt.gz
Precipitable_Water
1.34 1.44 1.59 1.72 1.78 1.99 1.91 1.68 1.56 1.55 1.53 1.51 1.63 1.52 1.48 1.46 1.53 1.47 1.42 1.43 1.42 1.51
1.37 1.36 1.46 1.64 1.75 1.93 1.93 1.86 1.69 1.66 1.69 1.63 1.65 1.59 1.48 1.44 1.46 1.35 1.34 1.36 1.40 1.44
1.45 1.42 1.53 1.67 1.73 1.82 1.93 1.99 1.99 1.78 1.81 1.82 1.74 1.67 1.51 1.44 1.42 1.31 1.30 1.30 1.31 1.39
1.44 1.43 1.56 1.62 1.71 1.83 1.92 1.90 1.99 2.03 1.86 1.83 1.84 1.76 1.63 1.50 1.48 1.38 1.23 1.21 1.22 1.24
1.44 1.40 1.45 1.63 1.68 1.75 1.82 1.99 1.98 2.06 1.98 2.00 1.86 1.73 1.58 1.47 1.53 1.47 1.31 1.18 1.08 1.10
1.59 1.44 1.39 1.54 1.69 1.67 1.73 1.76 1.87 1.95 1.99 1.96 1.84 1.83 1.65 1.57 1.65 1.59 1.56 1.46 1.32 1.20
1.95 1.59 1.49 1.49 1.57 1.63 1.72 1.68 1.70 1.81 1.89 1.95 1.95 1.85 1.79 1.71 1.72 1.74 1.65 1.62 1.50 1.46
2.05 1.90 1.60 1.56 1.64 1.73 1.70 1.72 1.71 1.76 1.83 1.84 1.91 1.81 1.74 1.79 1.70 1.64 1.67 1.70 1.67 1.65
1.87 1.96 1.81 1.68 1.70 1.78 1.81 1.80 1.77 1.73 1.70 1.68 1.76 1.83 1.79 1.78 1.73 1.73 1.69 1.68 1.69 1.72
1.68 1.77 1.77 1.82 1.75 1.75 1.74 1.80 1.75 1.70 1.68 1.70 1.74 1.75 1.77 1.77 1.73 1.69 1.69 1.66 1.70 1.62
1.55 1.55 1.59 1.66 1.70 1.73 1.66 1.71 1.76 1.76 1.69 1.63 1.68 1.75 1.74 1.72 1.76 1.74 1.71 1.71 1.66 1.60
1.47 1.44 1.37 1.31 1.38 1.42 1.55 1.68 1.74 1.75 1.73 1.68 1.76 1.71 1.76 1.78 1.81 1.79 1.77 1.79 1.77 1.71
1.31 1.34 1.30 1.28 1.29 1.29 1.30 1.41 1.58 1.67 1.76 1.73 1.73 1.69 1.67 1.72 1.76 1.76 1.80 1.84 1.87 1.86
1.10 1.14 1.16 1.18 1.21 1.18 1.18 1.18 1.24 1.41 1.54 1.63 1.67 1.64 1.63 1.62 1.60 1.59 1.67 1.75 1.77 1.81

GFSNIL_prec_pwat_093.txt.gz
Precipitable_Water
1.39 1.50 1.80 1.85 1.84 1.86 1.98 1.81 1.69 1.60 1.55 1.50 1.53 1.52 1.45 1.43 1.57 1.57 1.50 1.40 1.35 1.48
1.52 1.38 1.52 1.69 1.87 1.89 2.05 1.94 1.76 1.66 1.66 1.60 1.64 1.64 1.49 1.42 1.45 1.51 1.44 1.41 1.41 1.38
1.64 1.54 1.48 1.62 1.69 1.79 1.95 1.98 1.96 1.76 1.73 1.76 1.72 1.64 1.56 1.45 1.44 1.44 1.43 1.36 1.32 1.35
1.73 1.58 1.56 1.57 1.71 1.87 1.95 2.00 1.98 2.02 1.87 1.81 1.85 1.82 1.69 1.62 1.50 1.37 1.33 1.33 1.26 1.27
1.92 1.65 1.58 1.49 1.62 1.80 1.87 1.96 1.99 2.02 2.07 1.94 1.95 1.93 1.74 1.63 1.52 1.46 1.39 1.32 1.19 1.14
2.06 1.79 1.57 1.46 1.54 1.70 1.74 1.80 1.92 1.94 1.98 2.01 2.01 1.91 1.84 1.73 1.57 1.60 1.63 1.55 1.44 1.25
2.04 1.98 1.79 1.51 1.45 1.60 1.69 1.69 1.75 1.80 1.84 1.97 2.04 2.02 1.92 1.85 1.74 1.64 1.72 1.67 1.63 1.49
2.02 2.02 2.02 1.65 1.57 1.52 1.60 1.67 1.75 1.77 1.76 1.82 1.87 1.97 1.97 1.88 1.82 1.76 1.73 1.80 1.78 1.76
1.91 1.99 2.03 1.97 1.66 1.58 1.57 1.66 1.73 1.73 1.73 1.73 1.81 1.81 1.87 1.86 1.74 1.77 1.79 1.69 1.73 1.80
1.70 1.69 1.88 1.93 1.88 1.69 1.59 1.64 1.67 1.72 1.72 1.72 1.70 1.66 1.72 1.74 1.74 1.74 1.77 1.73 1.70 1.73
1.61 1.51 1.57 1.65 1.65 1.75 1.76 1.72 1.66 1.69 1.76 1.74 1.62 1.67 1.68 1.68 1.74 1.74 1.76 1.76 1.78 1.78
1.48 1.47 1.48 1.40 1.40 1.53 1.60 1.66 1.64 1.68 1.71 1.68 1.67 1.64 1.69 1.72 1.72 1.72 1.76 1.83 1.88 1.88
1.45 1.42 1.40 1.41 1.32 1.30 1.41 1.39 1.43 1.38 1.56 1.63 1.64 1.67 1.67 1.69 1.61 1.60 1.69 1.83 1.85 1.84
1.26 1.26 1.27 1.29 1.29 1.25 1.24 1.28 1.25 1.22 1.25 1.38 1.54 1.60 1.63 1.66 1.63 1.56 1.55 1.58 1.62 1.71

GFSNIL_prec_pwat_096.txt.gz
Precipitable_Water
1.50 1.61 1.84 1.99 1.99 1.92 1.96 1.90 1.82 1.68 1.66 1.60 1.56 1.52 1.47 1.40 1.59 1.62 1.53 1.44 1.46 1.46
1.58 1.51 1.62 1.98 1.97 2.00 2.15 2.11 1.95 1.70 1.67 1.62 1.57 1.61 1.53 1.44 1.46 1.64 1.59 1.53 1.43 1.36
1.75 1.67 1.54 1.63 1.76 1.91 1.98 2.04 2.08 1.85 1.77 1.74 1.70 1.77 1.68 1.52 1.47 1.49 1.53 1.46 1.41 1.36
1.91 1.84 1.67 1.59 1.65 1.77 1.87 1.92 2.05 2.04 1.94 1.86 1.87 1.87 1.78 1.70 1.60 1.46 1.44 1.45 1.38 1.32
2.04 1.99 1.78 1.65 1.64 1.78 1.91 2.02 2.02 2.02 2.06 2.00 1.99 1.97 1.94 1.78 1.72 1.65 1.46 1.42 1.42 1.30
2.03 2.07 2.02 1.82 1.68 1.65 1.75 1.93 2.00 1.96 1.99 2.07 2.07 2.04 2.09 1.91 1.76 1.62 1.57 1.61 1.52 1.42
2.04 2.05 2.01 2.04 1.79 1.62 1.62 1.75 1.82 1.87 1.93 1.98 2.09 2.09 2.05 1.96 1.87 1.78 1.66 1.70 1.71 1.66
2.02 2.03 2.03 2.01 2.05 1.75 1.58 1.67 1.86 1.79 1.84 1.86 1.85 1.93 1.98 1.97 1.98 1.89 1.84 1.80 1.83 1.85
2.01 1.90 1.99 2.07 2.07 1.92 1.59 1.59 1.74 1.82 1.83 1.80 1.81 1.74 1.78 1.83 1.89 1.93 1.78 1.82 1.83 1.81
1.90 1.83 1.76 1.87 1.98 1.95 1.77 1.66 1.63 1.71 1.79 1.68 1.65 1.60 1.65 1.71 1.80 1.86 1.85 1.86 1.88 1.86
1.75 1.75 1.73 1.73 1.78 1.84 1.79 1.76 1.73 1.74 1.74 1.63 1.56 1.68 1.69 1.71 1.78 1.82 1.85 1.84 1.86 1.87
1.63 1.56 1.58 1.58 1.64 1.62 1.61 1.69 1.78 1.80 1.70 1.57 1.53 1.60 1.74 1.81 1.82 1.84 1.85 1.83 1.79 1.81
1.59 1.54 1.50 1.51 1.50 1.54 1.53 1.58 1.68 1.71 1.64 1.48 1.47 1.51 1.58 1.71 1.71 1.70 1.72 1.85 1.80 1.70
1.43 1.43 1.46 1.48 1.48 1.47 1.43 1.40 1.42 1.45 1.46 1.42 1.37 1.34 1.44 1.56 1.65 1.63 1.65 1.67 1.63 1.64

GFSNIL_prec_pwat_099.txt.gz
Precipitable_Water
1.54 1.76 1.85 1.96 2.12 1.92 1.80 1.74 2.01 1.72 1.72 1.69 1.64 1.64 1.63 1.55 1.48 1.60 1.52 1.43 1.45 1.62
1.61 1.56 1.83 1.95 2.05 2.04 2.05 2.25 2.12 1.76 1.66 1.69 1.68 1.65 1.65 1.39 1.50 1.93 1.61 1.63 1.46 1.34
1.69 1.61 1.56 1.67 1.92 1.93 2.08 2.42 2.31 1.88 1.73 1.70 1.69 1.71 1.70 1.62 1.52 1.44 1.56 1.56 1.52 1.45
1.80 1.80 1.81 1.65 1.55 1.71 1.84 1.93 1.90 2.06 1.97 1.88 1.81 1.83 1.80 1.66 1.76 1.63 1.44 1.46 1.54 1.42
1.97 1.94 1.98 1.96 1.68 1.67 1.74 1.88 1.89 2.11 2.10 2.11 2.01 1.95 1.93 1.89 1.82 1.75 1.62 1.50 1.42 1.36
2.02 2.00 2.07 2.10 1.97 1.82 1.73 1.82 2.00 2.09 2.05 2.12 2.11 2.17 2.09 2.06 1.92 1.79 1.71 1.62 1.57 1.55
2.05 2.11 2.04 2.09 2.13 2.02 1.95 1.78 1.84 1.99 2.05 2.01 2.06 2.05 2.19 2.11 2.02 1.91 1.84 1.72 1.72 1.70
1.99 1.99 2.12 2.09 2.12 2.11 2.00 1.85 1.78 1.82 1.90 1.94 1.95 2.05 2.15 2.18 2.09 2.04 2.01 1.96 1.90 1.83
1.89 2.08 2.03 2.05 2.04 2.08 2.00 1.92 1.90 1.81 1.87 1.91 1.87 1.83 1.82 1.83 1.96 1.96 1.94 1.93 1.92 1.91
1.91 1.92 1.94 1.88 1.87 2.06 2.07 2.03 1.89 1.80 1.69 1.72 1.76 1.79 1.76 1.74 1.72 1.78 1.89 1.96 2.01 1.94
1.81 1.79 1.81 1.85 1.80 1.75 1.92 1.95 1.89 1.83 1.63 1.51 1.48 1.62 1.66 1.63 1.66 1.71 1.82 1.91 2.00 2.02
1.76 1.77 1.71 1.65 1.70 1.77 1.90 1.83 1.77 1.81 1.74 1.59 1.49 1.46 1.53 1.64 1.80 1.90 1.93 1.88 1.91 1.99
1.67 1.62 1.62 1.64 1.64 1.66 1.68 1.67 1.69 1.61 1.72 1.69 1.60 1.53 1.53 1.58 1.58 1.65 1.73 1.99 1.83 1.68
1.58 1.55 1.55 1.56 1.56 1.58 1.60 1.65 1.59 1.53 1.56 1.60 1.59 1.51 1.40 1.42 1.47 1.45 1.52 1.59 1.64 1.67

GFSNIL_prec_pwat_102.txt.gz
Precipitable_Water
1.48 1.79 1.90 2.07 2.08 1.91 2.05 2.04 1.99 2.00 1.67 1.60 1.55 1.51 1.51 1.51 1.44 1.60 1.42 1.42 1.56 1.63
1.38 1.43 1.74 1.91 1.96 2.07 2.06 1.94 2.15 1.99 1.79 1.59 1.69 1.49 1.57 1.32 1.43 1.53 1.66 1.49 1.44 1.29
1.35 1.44 1.52 1.63 1.84 2.04 2.12 2.01 1.87 1.90 1.85 1.69 1.61 1.69 1.56 1.49 1.53 1.48 1.47 1.56 1.63 1.54
1.72 1.69 1.59 1.51 1.49 1.65 1.88 1.96 2.06 2.13 2.09 1.83 1.70 1.60 1.65 1.60 1.69 1.79 1.60 1.41 1.47 1.52
1.95 1.98 1.85 1.80 1.88 1.72 1.70 1.76 1.82 1.96 2.02 2.09 1.99 1.98 1.85 1.74 1.68 1.71 1.63 1.53 1.38 1.34
2.14 2.06 2.09 2.02 1.92 2.16 1.93 1.73 1.72 1.88 2.01 2.06 2.08 2.08 2.05 2.05 1.99 1.88 1.81 1.65 1.63 1.54
2.03 2.01 2.01 2.08 2.06 2.12 2.09 1.96 1.87 1.79 2.05 2.20 2.09 2.10 2.16 2.18 2.04 2.02 1.92 1.84 1.70 1.67
1.94 1.95 1.98 1.98 2.01 2.09 2.04 2.04 1.88 1.94 1.90 2.12 2.07 1.98 2.00 2.04 2.19 2.14 2.02 2.03 2.12 1.99
1.99 1.98 1.93 1.94 1.95 2.03 2.06 2.07 2.02 1.88 1.89 1.90 1.88 1.96 1.94 1.89 1.90 2.05 2.10 1.96 1.93 2.01
1.99 1.91 1.92 1.98 1.99 1.90 1.93 2.04 1.93 1.96 1.91 1.69 1.67 1.75 1.79 1.81 1.84 1.78 1.70 1.74 1.84 1.90
1.90 1.85 1.85 1.81 1.84 1.78 1.79 1.95 2.02 1.98 1.79 1.73 1.53 1.59 1.65 1.72 1.76 1.75 1.78 1.80 1.83 1.82
1.82 1.76 1.76 1.76 1.75 1.73 1.74 1.86 1.93 1.92 1.76 1.66 1.58 1.47 1.51 1.57 1.62 1.79 1.87 1.88 1.83 1.84
1.75 1.74 1.69 1.73 1.71 1.72 1.72 1.72 1.75 1.77 1.71 1.59 1.54 1.54 1.54 1.56 1.53 1.53 1.51 1.65 1.62 1.59
1.61 1.63 1.69 1.67 1.63 1.64 1.67 1.68 1.66 1.63 1.61 1.51 1.51 1.50 1.47 1.48 1.50 1.49 1.46 1.44 1.46 1.54

GFSNIL_prec_pwat_105.txt.gz
Precipitable_Water
1.72 1.84 1.89 1.99 2.09 2.02 1.85 1.93 1.94 1.89 1.79 1.68 1.56 1.64 1.70 1.61 1.50 1.43 1.37 1.44 1.56 1.63
1.36 1.51 1.76 1.92 2.04 2.15 2.06 1.86 1.98 2.12 1.78 1.67 1.69 1.60 1.46 1.48 1.45 1.44 1.44 1.33 1.36 1.56
1.36 1.43 1.56 1.69 1.75 1.90 1.97 2.04 2.04 1.98 1.85 1.63 1.63 1.59 1.53 1.50 1.47 1.43 1.39 1.46 1.48 1.37
1.70 1.42 1.52 1.53 1.56 1.55 1.82 1.94 1.81 1.88 2.12 1.90 1.75 1.66 1.67 1.60 1.59 1.52 1.59 1.45 1.36 1.42
1.98 2.02 1.87 1.72 1.68 1.72 1.57 1.59 1.66 1.95 1.96 2.08 2.08 1.96 1.82 1.73 1.73 1.66 1.67 1.65 1.59 1.39
2.05 2.02 2.04 2.02 1.93 1.90 1.82 1.84 1.73 1.62 1.72 1.86 2.13 2.07 2.04 1.94 1.97 1.94 1.90 1.86 1.70 1.65
1.98 2.01 2.06 2.16 2.14 2.04 1.98 2.03 1.97 1.81 1.74 1.88 2.08 2.12 2.15 2.14 2.14 2.10 2.07 2.01 1.93 1.81
1.93 2.00 2.05 2.08 2.03 1.96 1.97 2.01 2.08 2.10 1.96 1.94 1.87 2.11 2.08 2.04 2.05 2.18 2.09 2.07 2.13 2.14
1.90 1.93 1.92 1.94 1.95 1.93 1.92 2.01 2.04 2.00 1.99 1.90 1.83 1.85 2.01 1.99 1.95 1.95 2.02 2.07 2.15 2.10
1.88 1.90 1.99 1.99 1.98 1.93 1.83 1.81 1.94 2.05 1.98 1.85 1.73 1.71 1.79 1.86 1.86 1.87 1.86 1.80 1.77 1.80
1.88 1.85 1.83 1.84 1.82 1.81 1.81 1.74 1.87 1.96 1.89 1.79 1.66 1.66 1.73 1.76 1.79 1.82 1.85 1.81 1.80 1.75
1.90 1.81 1.77 1.72 1.74 1.76 1.74 1.77 1.79 1.88 1.82 1.70 1.60 1.60 1.66 1.65 1.70 1.76 1.68 1.72 1.75 1.70
1.81 1.76 1.72 1.71 1.69 1.74 1.74 1.75 1.76 1.69 1.73 1.73 1.60 1.48 1.44 1.52 1.54 1.51 1.53 1.56 1.57 1.56
1.64 1.65 1.67 1.65 1.66 1.68 1.70 1.69 1.68 1.66 1.59 1.53 1.46 1.40 1.38 1.35 1.42 1.46 1.49 1.43 1.46 1.50

GFSNIL_prec_pwat_108.txt.gz
Precipitable_Water
1.98 1.89 1.91 1.89 1.88 1.96 1.86 1.85 1.83 1.70 1.69 1.55 1.50 1.60 1.66 1.61 1.48 1.40 1.41 1.48 1.55 1.63
1.48 1.64 1.72 1.86 2.05 2.08 2.00 1.95 1.90 1.94 1.85 1.67 1.61 1.54 1.49 1.55 1.53 1.50 1.45 1.36 1.31 1.53
1.23 1.40 1.51 1.68 1.77 1.94 2.02 1.99 1.93 2.04 1.92 1.68 1.54 1.62 1.57 1.43 1.41 1.41 1.49 1.44 1.46 1.42
1.52 1.54 1.46 1.50 1.54 1.62 1.79 1.90 1.99 1.94 1.86 1.85 1.71 1.67 1.59 1.54 1.53 1.41 1.38 1.40 1.44 1.52
2.11 1.93 1.69 1.49 1.50 1.53 1.46 1.57 1.63 1.76 2.00 2.03 2.03 1.94 1.77 1.58 1.64 1.58 1.55 1.59 1.55 1.39
2.15 2.01 1.98 1.97 1.86 1.85 1.80 1.76 1.71 1.63 1.67 1.77 1.88 2.06 2.06 1.96 1.94 1.88 1.79 1.79 1.81 1.68
2.12 2.10 2.07 2.10 2.10 2.09 2.11 1.99 1.94 1.99 1.78 1.70 1.78 1.96 2.04 2.07 2.04 2.07 2.07 2.08 1.97 1.90
2.01 2.01 2.06 2.09 2.13 2.17 2.13 2.04 2.03 2.11 2.08 1.91 1.82 1.85 1.93 2.00 2.03 2.06 2.00 2.08 2.11 2.09
1.90 1.91 1.92 1.97 2.04 2.08 2.03 2.01 2.00 2.03 2.02 1.98 1.92 1.84 1.83 1.86 1.97 2.03 2.01 1.99 2.11 2.08
1.87 1.87 1.89 1.93 1.96 1.93 1.92 1.92 1.83 1.85 1.92 1.88 1.82 1.79 1.74 1.81 1.88 1.96 1.99 1.93 1.86 1.81
1.91 1.92 1.89 1.86 1.82 1.84 1.84 1.82 1.71 1.76 1.84 1.85 1.82 1.83 1.84 1.85 1.88 1.88 1.92 1.91 1.82 1.72
1.92 1.90 1.86 1.78 1.73 1.74 1.76 1.77 1.75 1.72 1.74 1.76 1.71 1.71 1.72 1.78 1.87 1.82 1.77 1.69 1.67 1.65
1.93 1.89 1.82 1.80 1.77 1.75 1.76 1.72 1.74 1.73 1.72 1.61 1.56 1.61 1.54 1.50 1.54 1.55 1.57 1.65 1.64 1.55
1.79 1.77 1.76 1.75 1.77 1.77 1.76 1.74 1.69 1.66 1.64 1.59 1.48 1.43 1.42 1.42 1.44 1.41 1.39 1.43 1.45 1.46

GFSNIL_prec_pwat_111.txt.gz
Precipitable_Water
1.80 1.79 1.84 1.96 1.88 1.83 1.83 1.73 1.76 1.67 1.63 1.57 1.59 1.54 1.55 1.62 1.52 1.39 1.39 1.47 1.51 1.55
1.80 1.91 1.84 1.95 1.96 1.99 2.08 2.00 1.91 1.90 1.81 1.77 1.66 1.54 1.58 1.59 1.51 1.43 1.37 1.30 1.38 1.48
1.32 1.52 1.69 1.80 1.87 2.03 2.04 2.06 1.97 1.93 1.94 1.90 1.75 1.63 1.59 1.49 1.50 1.44 1.44 1.43 1.34 1.46
1.31 1.33 1.37 1.49 1.66 1.81 1.94 1.97 1.95 1.98 2.06 1.95 1.80 1.69 1.66 1.59 1.53 1.43 1.37 1.40 1.34 1.38
1.52 1.57 1.58 1.46 1.52 1.57 1.59 1.73 1.80 1.92 1.95 1.90 2.00 1.92 1.81 1.65 1.60 1.55 1.48 1.46 1.49 1.41
1.83 1.93 2.06 1.86 1.58 1.55 1.55 1.52 1.54 1.58 1.66 1.88 2.03 1.98 2.07 2.03 1.88 1.74 1.73 1.71 1.67 1.66
1.99 2.05 2.13 2.16 2.00 1.95 1.98 1.87 1.81 1.74 1.76 1.68 1.65 1.74 1.84 2.02 2.01 1.97 1.97 1.98 1.97 1.93
2.08 2.16 2.14 2.11 2.15 2.18 2.15 2.10 2.13 2.04 2.02 2.03 1.91 1.72 1.82 1.88 1.94 2.00 2.03 2.08 2.06 2.05
2.08 2.13 2.07 2.10 2.09 2.11 2.14 2.16 2.14 2.03 1.99 1.97 2.03 1.99 1.83 1.80 1.81 1.95 1.98 1.97 2.01 2.06
2.10 2.00 1.96 1.98 1.98 1.99 2.03 2.06 1.97 1.92 1.88 1.82 1.93 1.94 1.90 1.84 1.86 1.91 2.00 1.94 1.97 1.89
1.98 1.96 1.99 1.97 1.92 1.92 1.97 1.91 1.85 1.78 1.68 1.73 1.78 1.94 1.96 1.89 1.85 1.85 1.99 1.97 1.94 1.87
1.98 1.94 1.96 1.93 1.88 1.84 1.83 1.78 1.72 1.71 1.65 1.60 1.71 1.82 1.96 1.97 1.88 1.85 1.76 1.75 1.79 1.75
2.01 1.93 1.90 1.89 1.84 1.86 1.85 1.73 1.73 1.66 1.63 1.62 1.55 1.56 1.65 1.74 1.67 1.57 1.56 1.71 1.69 1.62
1.96 1.96 1.91 1.88 1.86 1.89 1.85 1.80 1.74 1.69 1.66 1.60 1.54 1.50 1.44 1.47 1.50 1.50 1.50 1.49 1.44 1.40

GFSNIL_prec_pwat_114.txt.gz
Precipitable_Water
1.82 1.85 1.87 1.88 1.84 1.81 1.77 1.77 1.66 1.58 1.60 1.58 1.59 1.57 1.52 1.51 1.49 1.39 1.37 1.41 1.49 1.48
1.81 1.87 1.84 1.88 1.99 1.90 1.91 1.91 1.82 1.80 1.71 1.68 1.61 1.57 1.55 1.58 1.51 1.52 1.48 1.36 1.29 1.29
1.62 1.84 1.98 1.93 1.95 1.98 2.09 2.14 2.05 1.95 1.94 1.86 1.83 1.72 1.61 1.55 1.54 1.50 1.51 1.47 1.40 1.40
1.40 1.46 1.69 1.78 1.83 1.91 2.05 2.07 2.05 2.00 1.92 1.94 1.98 1.86 1.72 1.63 1.61 1.50 1.49 1.48 1.41 1.39
1.33 1.35 1.33 1.32 1.52 1.78 1.84 1.86 1.91 1.92 1.95 2.02 2.00 1.97 1.80 1.67 1.72 1.64 1.53 1.53 1.49 1.46
1.43 1.40 1.38 1.40 1.44 1.49 1.66 1.64 1.55 1.63 1.70 1.80 1.91 1.99 2.02 2.01 2.00 1.90 1.74 1.68 1.68 1.68
1.80 1.71 1.74 1.75 1.86 1.68 1.58 1.65 1.67 1.60 1.57 1.59 1.65 1.71 1.81 1.86 1.94 2.05 2.03 1.96 1.94 1.90
2.07 2.00 1.89 1.93 2.01 2.04 1.86 1.94 2.04 1.99 1.93 1.87 1.91 1.90 1.71 1.70 1.75 1.89 1.93 1.99 2.10 2.15
2.06 1.99 1.94 2.01 2.07 2.12 2.10 2.17 2.16 2.10 2.10 2.06 2.01 2.00 1.99 1.94 1.85 1.80 1.89 1.95 2.06 2.11
2.04 2.02 2.01 2.05 2.09 2.09 2.09 2.15 2.12 2.11 2.05 1.91 1.90 1.91 1.91 1.96 1.90 1.80 1.84 1.93 2.01 2.01
2.06 2.04 2.01 2.05 2.00 2.02 2.04 2.04 1.99 1.92 1.85 1.80 1.77 1.88 1.88 1.93 1.91 1.86 1.85 1.92 1.93 1.94
1.94 1.87 1.95 1.95 1.99 2.02 1.97 1.95 1.91 1.81 1.75 1.72 1.71 1.76 1.91 1.95 1.91 1.92 1.85 1.88 1.86 1.79
1.98 1.90 1.94 2.03 2.04 2.07 1.93 1.82 1.76 1.68 1.66 1.63 1.61 1.64 1.64 1.67 1.67 1.63 1.62 1.62 1.57 1.61
1.91 1.95 2.05 2.03 2.02 1.99 1.90 1.82 1.74 1.70 1.64 1.60 1.58 1.54 1.53 1.57 1.57 1.54 1.49 1.45 1.45 1.47

GFSNIL_prec_pwat_117.txt.gz
Precipitable_Water
1.80 1.80 1.81 1.86 1.80 1.83 1.73 1.68 1.67 1.63 1.65 1.68 1.72 1.70 1.56 1.49 1.42 1.39 1.37 1.44 1.52 1.55
1.83 1.86 1.86 1.94 1.94 1.91 1.94 1.91 1.86 1.73 1.61 1.64 1.64 1.60 1.61 1.52 1.53 1.58 1.55 1.48 1.36 1.36
1.77 1.82 1.91 1.95 1.92 1.97 1.99 1.98 1.96 1.90 1.89 1.82 1.78 1.70 1.61 1.56 1.55 1.52 1.51 1.49 1.45 1.45
1.66 1.68 1.84 1.96 1.98 2.01 2.05 2.12 2.12 2.08 2.04 1.97 1.86 1.86 1.86 1.76 1.67 1.55 1.50 1.48 1.43 1.43
1.41 1.47 1.52 1.61 1.86 1.89 1.88 2.01 2.08 2.07 2.00 1.96 1.96 2.04 1.98 1.82 1.74 1.66 1.64 1.62 1.56 1.50
1.44 1.37 1.38 1.42 1.42 1.42 1.53 1.70 1.86 1.82 1.82 1.90 1.96 2.00 2.00 2.00 1.89 1.88 1.90 1.86 1.72 1.67
1.65 1.61 1.50 1.56 1.50 1.49 1.48 1.45 1.53 1.61 1.57 1.64 1.74 1.78 1.94 1.97 1.97 1.95 1.99 2.04 2.06 1.92
1.76 1.85 1.84 1.81 1.77 1.71 1.80 1.82 1.67 1.57 1.62 1.64 1.67 1.67 1.72 1.70 1.64 1.65 1.70 1.90 2.04 2.09
1.94 2.06 2.06 2.05 2.08 1.97 1.92 1.91 2.00 1.88 1.80 1.90 1.97 1.93 1.93 1.97 1.97 1.91 1.83 1.81 1.95 2.04
2.08 2.07 2.05 2.06 2.06 2.04 1.99 2.01 2.03 1.95 2.04 2.03 2.01 2.01 1.98 1.94 1.91 1.90 1.91 1.94 1.98 1.90
2.08 2.10 2.13 2.07 2.06 2.02 2.03 2.05 2.06 2.06 2.05 2.01 2.03 1.94 1.95 1.96 1.91 1.92 1.92 1.98 2.02 1.95
2.13 2.06 2.09 2.06 2.09 2.02 1.98 1.99 2.02 1.96 1.93 1.87 1.82 1.85 1.91 1.92 1.92 1.93 1.87 1.89 1.89 1.87
2.12 2.09 2.00 1.98 1.98 2.01 2.04 1.99 2.00 1.93 1.77 1.74 1.74 1.77 1.82 1.82 1.75 1.68 1.67 1.69 1.70 1.66
2.01 2.02 2.01 1.98 2.01 2.03 2.02 1.99 1.83 1.77 1.72 1.73 1.73 1.67 1.67 1.70 1.69 1.60 1.59 1.54 1.49 1.50

GFSNIL_prec_pwat_120.txt.gz
Precipitable_Water
1.72 1.73 1.72 1.72 1.84 1.78 1.73 1.68 1.75 1.77 1.74 1.64 1.71 1.67 1.65 1.52 1.44 1.49 1.53 1.57 1.52 1.58
1.76 1.80 1.84 1.92 1.98 1.94 1.99 1.91 1.87 1.79 1.74 1.71 1.68 1.70 1.70 1.58 1.56 1.58 1.51 1.48 1.45 1.38
1.75 1.83 1.91 1.93 1.96 1.92 1.96 1.99 1.88 1.84 1.81 1.73 1.74 1.71 1.68 1.56 1.61 1.57 1.61 1.63 1.58 1.53
1.69 1.81 1.87 1.91 1.99 2.02 2.06 2.05 2.02 2.03 1.97 1.96 1.95 1.95 1.83 1.69 1.69 1.69 1.61 1.59 1.57 1.53
1.69 1.70 1.75 1.78 1.92 2.06 2.05 2.11 2.15 2.18 2.16 2.08 2.06 2.03 1.91 1.95 1.93 1.79 1.70 1.67 1.66 1.65
1.43 1.45 1.44 1.51 1.60 1.74 1.88 1.92 1.93 1.97 1.99 2.02 2.01 2.01 2.04 2.09 2.07 2.02 1.86 1.85 1.86 1.82
1.51 1.50 1.47 1.50 1.50 1.47 1.46 1.40 1.47 1.60 1.76 1.83 1.81 1.91 1.97 2.02 2.09 2.07 2.05 2.06 2.11 2.11
1.58 1.69 1.76 1.76 1.68 1.62 1.57 1.57 1.58 1.58 1.58 1.61 1.66 1.64 1.67 1.70 1.75 1.87 1.87 1.89 1.90 1.93
1.83 1.73 1.81 1.87 1.99 1.93 1.87 1.86 1.86 1.91 1.84 1.76 1.75 1.64 1.52 1.57 1.64 1.81 1.86 1.77 1.84 1.99
2.03 1.96 1.92 2.01 2.16 2.12 2.06 2.13 2.09 2.09 2.01 1.90 1.94 1.74 1.72 1.82 1.89 1.94 1.95 1.99 2.00 2.05
2.01 2.01 2.14 2.08 2.08 2.07 2.12 2.12 2.10 2.09 2.09 2.05 2.06 1.92 1.90 1.96 1.95 1.97 2.04 1.97 2.03 2.09
1.98 1.96 2.02 2.04 2.04 2.09 2.10 2.12 2.08 2.07 2.03 2.01 1.99 1.97 2.06 2.04 1.97 1.94 1.91 1.94 1.93 1.92
2.03 2.04 2.05 2.13 2.14 2.14 2.18 2.09 2.06 2.01 1.97 1.86 1.86 1.86 1.90 1.91 1.94 1.88 1.81 1.81 1.77 1.79
2.00 2.01 2.09 2.10 2.06 2.04 2.02 2.01 1.96 1.94 1.93 1.85 1.78 1.74 1.80 1.85 1.84 1.75 1.71 1.66 1.64 1.61

GFSNIL_prec_pwat_123.txt.gz
Precipitable_Water
1.74 1.67 1.60 1.66 1.57 1.57 1.59 1.56 1.81 1.78 1.68 1.65 1.70 1.67 1.70 1.56 1.49 1.44 1.47 1.52 1.59 1.54
1.76 1.68 1.63 1.77 1.75 1.79 1.81 1.76 1.77 1.80 1.79 1.76 1.73 1.72 1.74 1.65 1.58 1.56 1.60 1.44 1.40 1.38
1.71 1.75 1.84 1.97 1.97 1.90 1.95 2.06 1.97 1.96 1.83 1.80 1.77 1.72 1.69 1.63 1.66 1.57 1.58 1.57 1.56 1.55
1.72 1.83 1.87 1.91 1.96 1.97 2.06 2.03 1.99 2.00 2.01 1.93 1.84 1.86 1.91 1.89 1.82 1.70 1.66 1.65 1.58 1.61
1.74 1.79 1.85 1.89 1.92 2.10 2.09 2.16 2.18 2.12 2.08 2.06 2.08 2.14 2.06 2.03 1.88 1.95 1.87 1.77 1.75 1.66
1.68 1.70 1.72 1.80 1.87 1.96 2.06 2.07 2.13 2.17 2.18 2.17 2.17 2.13 2.07 2.05 2.02 1.99 2.01 2.03 1.88 1.81
1.45 1.61 1.68 1.66 1.63 1.62 1.64 1.72 1.82 1.85 1.90 1.87 1.90 1.91 1.97 2.08 2.04 1.99 2.08 2.14 2.10 2.10
1.46 1.55 1.59 1.59 1.60 1.59 1.63 1.56 1.50 1.47 1.50 1.58 1.67 1.75 1.72 1.77 1.83 1.87 1.88 2.03 2.11 2.09
1.66 1.64 1.71 1.83 1.87 1.90 1.88 1.84 1.80 1.65 1.69 1.78 1.82 1.78 1.77 1.68 1.60 1.65 1.59 1.61 1.70 1.85
1.86 1.76 1.73 1.82 1.84 1.94 1.98 2.09 2.12 2.00 2.06 2.11 2.17 2.10 1.95 1.74 1.71 1.77 1.73 1.85 1.86 1.97
1.99 1.98 1.99 1.97 2.01 2.04 2.10 2.08 2.13 2.09 2.13 2.15 2.15 2.11 2.06 2.01 1.94 1.91 1.83 1.94 1.98 2.03
1.97 1.90 1.90 1.91 2.04 2.05 2.14 2.12 2.07 2.11 2.09 2.10 2.06 2.08 2.08 2.05 2.08 2.01 1.84 1.89 1.93 1.95
1.99 1.96 1.92 1.99 2.03 2.06 2.10 2.07 2.07 2.08 2.11 2.05 1.94 1.98 1.97 1.98 2.02 1.96 1.86 1.91 1.86 1.86
1.94 1.96 1.91 1.96 2.12 2.06 2.03 2.01 1.95 1.97 1.99 1.96 1.90 1.85 1.82 1.83 1.86 1.89 1.90 1.84 1.77 1.66

GFSNIL_prec_pwat_129.txt.gz
Precipitable_Water
1.57 1.56 1.54 1.64 1.63 1.62 1.56 1.55 1.58 1.54 1.61 1.58 1.61 1.58 1.54 1.51 1.44 1.48 1.50 1.44 1.43 1.31
1.58 1.57 1.59 1.69 1.66 1.62 1.62 1.59 1.71 1.66 1.65 1.70 1.63 1.58 1.59 1.59 1.54 1.57 1.55 1.56 1.59 1.43
1.54 1.58 1.71 1.69 1.63 1.59 1.60 1.62 1.65 1.73 1.69 1.71 1.72 1.74 1.68 1.59 1.60 1.60 1.61 1.62 1.57 1.54
1.58 1.59 1.66 1.62 1.63 1.64 1.66 1.68 1.78 1.87 1.90 1.88 1.85 1.82 1.83 1.78 1.70 1.61 1.75 1.89 1.89 1.67
1.41 1.49 1.55 1.60 1.60 1.65 1.71 1.88 1.79 1.90 1.95 1.91 1.95 1.99 1.95 1.83 1.87 1.95 1.93 1.97 1.87 1.88
1.41 1.45 1.44 1.53 1.55 1.62 1.79 1.88 1.94 1.96 1.99 1.98 2.04 2.09 2.10 2.11 2.13 2.13 2.09 2.04 1.97 1.99
1.45 1.54 1.58 1.59 1.65 1.74 1.84 1.85 1.89 1.97 2.04 2.01 2.02 2.08 2.15 2.15 2.07 2.00 1.97 1.96 1.96 2.02
1.43 1.54 1.61 1.67 1.71 1.86 1.90 1.87 1.83 1.82 1.80 1.86 1.89 1.85 1.79 1.74 1.62 1.63 1.64 1.71 1.77 1.80
1.49 1.50 1.50 1.65 1.71 1.66 1.74 1.68 1.65 1.61 1.57 1.56 1.60 1.63 1.64 1.63 1.65 1.67 1.70 1.68 1.84 1.94
1.59 1.51 1.48 1.49 1.54 1.55 1.53 1.60 1.62 1.69 1.76 1.74 1.82 1.92 1.93 1.88 1.78 1.77 1.89 1.93 1.99 2.02
1.67 1.68 1.70 1.59 1.53 1.61 1.70 1.73 1.75 1.85 1.91 1.88 1.88 1.97 1.99 2.03 2.06 2.00 2.04 2.04 2.00 2.04
2.04 1.93 1.86 1.92 1.87 1.83 1.86 1.89 1.89 1.92 1.90 1.87 1.81 1.93 1.99 2.06 2.05 2.04 2.03 2.02 2.01 2.00
2.07 1.98 2.05 2.12 2.11 2.08 2.09 1.98 1.96 1.92 1.95 1.93 1.87 1.92 2.02 2.05 2.02 2.00 2.03 2.01 1.94 1.98
2.06 1.98 2.02 1.98 2.09 2.03 1.97 1.94 1.87 1.85 1.87 1.85 1.87 1.89 1.97 1.97 1.93 1.92 1.93 1.93 1.83 1.80